Wetterdaten: Montag, 02.07.2018
Datum Zeit Temp. Aussen Temp. o. S. +5cm Feuchte Auss Luftdruck Regen Sonnenschein Regendauer Solar Windben Empfang
02.07.2018 00:00 16,7 C 12,8 C 12,2 C 63 % 1013,7 hPa 0,0 l/m 0 min 0 min 0 W/m 0,0 km/h (0 Bft) 97,87 %
02.07.2018 00:02 16,7 C 12,8 C 12,2 C 63 % 1013,7 hPa 0,0 l/m 0 min 0 min 0 W/m 2,3 km/h (1 Bft) 94,87 %
02.07.2018 00:04 16,6 C 12,8 C 12,2 C 63 % 1013,7 hPa 0,0 l/m 0 min 0 min 0 W/m 2,3 km/h (1 Bft) 97,87 %
02.07.2018 00:07 16,6 C 12,8 C 12,2 C 63 % 1013,7 hPa 0,0 l/m 0 min 0 min 0 W/m 2,3 km/h (1 Bft) 97,87 %
02.07.2018 00:08 16,6 C 12,8 C 12,2 C 63 % 1013,7 hPa 0,0 l/m 0 min 0 min 0 W/m 2,3 km/h (1 Bft) 95,74 %
02.07.2018 00:10 16,5 C 12,8 C 12,2 C 63 % 1013,8 hPa 0,0 l/m 0 min 0 min 0 W/m 2,3 km/h (1 Bft) 95,65 %
02.07.2018 00:12 16,4 C 12,8 C 12,2 C 63 % 1013,7 hPa 0,0 l/m 0 min 0 min 0 W/m 2,3 km/h (1 Bft) 95,74 %
02.07.2018 00:14 16,4 C 12,8 C 12,8 C 63 % 1013,7 hPa 0,0 l/m 0 min 0 min 0 W/m 2,3 km/h (1 Bft) 97,87 %
02.07.2018 00:16 16,3 C 12,8 C 12,8 C 64 % 1013,9 hPa 0,0 l/m 0 min 0 min 0 W/m 2,3 km/h (1 Bft) 95,74 %
02.07.2018 00:18 16,3 C 12,8 C 12,8 C 64 % 1013,8 hPa 0,0 l/m 0 min 0 min 0 W/m 2,3 km/h (1 Bft) 93,62 %
02.07.2018 00:20 16,2 C 12,8 C 12,8 C 64 % 1013,9 hPa 0,0 l/m 0 min 0 min 0 W/m 2,3 km/h (1 Bft) 97,87 %
02.07.2018 00:22 16,2 C 12,8 C 12,8 C 64 % 1013,9 hPa 0,0 l/m 0 min 0 min 0 W/m 2,3 km/h (1 Bft) 95,65 %
02.07.2018 00:24 16,1 C 12,8 C 12,8 C 64 % 1014,0 hPa 0,0 l/m 0 min 0 min 0 W/m 0,0 km/h (0 Bft) 95,74 %
02.07.2018 00:26 16,1 C 12,8 C 13,3 C 64 % 1013,9 hPa 0,0 l/m 0 min 0 min 0 W/m 0,0 km/h (0 Bft) 97,87 %
02.07.2018 00:28 16,1 C 12,8 C 13,3 C 64 % 1013,9 hPa 0,0 l/m 0 min 0 min 0 W/m 0,0 km/h (0 Bft) 95,74 %
02.07.2018 00:30 16,0 C 12,8 C 13,3 C 64 % 1013,9 hPa 0,0 l/m 0 min 0 min 0 W/m 2,3 km/h (1 Bft) 95,74 %
02.07.2018 00:32 15,9 C 12,8 C 13,3 C 64 % 1013,9 hPa 0,0 l/m 0 min 0 min 0 W/m 2,3 km/h (1 Bft) 97,83 %
02.07.2018 00:34 15,9 C 12,8 C 13,3 C 64 % 1013,8 hPa 0,0 l/m 0 min 0 min 0 W/m 0,0 km/h (0 Bft) 97,87 %
02.07.2018 00:36 15,9 C 12,8 C 13,3 C 64 % 1013,8 hPa 0,0 l/m 0 min 0 min 0 W/m 0,0 km/h (0 Bft) 95,74 %
02.07.2018 00:38 15,8 C 12,8 C 13,9 C 65 % 1013,9 hPa 0,0 l/m 0 min 0 min 0 W/m 2,3 km/h (1 Bft) 97,87 %
02.07.2018 00:40 15,8 C 12,8 C 13,9 C 64 % 1013,9 hPa 0,0 l/m 0 min 0 min 0 W/m 2,3 km/h (1 Bft) 95,74 %
02.07.2018 00:42 15,7 C 12,8 C 13,9 C 64 % 1013,9 hPa 0,0 l/m 0 min 0 min 0 W/m 2,3 km/h (1 Bft) 97,87 %
02.07.2018 00:44 15,7 C 12,8 C 13,9 C 64 % 1013,9 hPa 0,0 l/m 0 min 0 min 0 W/m 2,3 km/h (1 Bft) 97,87 %
02.07.2018 00:46 15,6 C 12,8 C 13,9 C 64 % 1013,9 hPa 0,0 l/m 0 min 0 min 0 W/m 0,0 km/h (0 Bft) 97,83 %
02.07.2018 00:48 15,6 C 12,2 C 13,9 C 64 % 1013,9 hPa 0,0 l/m 0 min 0 min 0 W/m 0,0 km/h (0 Bft) 97,87 %
02.07.2018 00:50 15,5 C 12,8 C 13,9 C 64 % 1013,9 hPa 0,0 l/m 0 min 0 min 0 W/m 0,0 km/h (0 Bft) 100,00 %
02.07.2018 00:52 15,5 C 12,8 C 13,9 C 64 % 1013,8 hPa 0,0 l/m 0 min 0 min 0 W/m 0,0 km/h (0 Bft) 100,00 %
02.07.2018 00:54 15,4 C 12,8 C 13,9 C 64 % 1013,9 hPa 0,0 l/m 0 min 0 min 0 W/m 0,0 km/h (0 Bft) 100,00 %
02.07.2018 00:56 15,4 C 13,3 C 13,9 C 64 % 1014,0 hPa 0,0 l/m 0 min 0 min 0 W/m 0,0 km/h (0 Bft) 100,00 %
02.07.2018 00:58 15,4 C 13,3 C 13,9 C 64 % 1013,9 hPa 0,0 l/m 0 min 0 min 0 W/m 0,0 km/h (0 Bft) 100,00 %
02.07.2018 01:00 15,3 C 13,3 C 13,9 C 64 % 1013,9 hPa 0,0 l/m 0 min 0 min 0 W/m 0,0 km/h (0 Bft) 100,00 %
02.07.2018 01:02 15,3 C 13,9 C 13,9 C 64 % 1013,9 hPa 0,0 l/m 0 min 0 min 0 W/m 0,0 km/h (0 Bft) 97,87 %
02.07.2018 01:04 15,3 C 13,9 C 13,9 C 64 % 1013,9 hPa 0,0 l/m 0 min 0 min 0 W/m 0,0 km/h (0 Bft) 100,00 %
02.07.2018 01:08 15,2 C 13,9 C 13,9 C 64 % 1014,0 hPa 0,0 l/m 0 min 0 min 0 W/m 0,0 km/h (0 Bft) 98,00 %
02.07.2018 01:10 15,2 C 13,9 C 13,9 C 64 % 1013,9 hPa 0,0 l/m 0 min 0 min 0 W/m 0,0 km/h (0 Bft) 100,00 %
02.07.2018 01:12 15,1 C 13,9 C 13,9 C 64 % 1014,0 hPa 0,0 l/m 0 min 0 min 0 W/m 0,0 km/h (0 Bft) 100,00 %
02.07.2018 01:14 15,1 C 13,9 C 13,9 C 64 % 1014,0 hPa 0,0 l/m 0 min 0 min 0 W/m 0,0 km/h (0 Bft) 100,00 %
02.07.2018 01:16 15,1 C 13,3 C 13,9 C 64 % 1013,9 hPa 0,0 l/m 0 min 0 min 0 W/m 0,0 km/h (0 Bft) 100,00 %
02.07.2018 01:18 15,1 C 13,3 C 13,9 C 64 % 1013,9 hPa 0,0 l/m 0 min 0 min 0 W/m 0,0 km/h (0 Bft) 100,00 %
02.07.2018 01:20 15,0 C 13,9 C 13,9 C 64 % 1013,9 hPa 0,0 l/m 0 min 0 min 0 W/m 0,0 km/h (0 Bft) 100,00 %
02.07.2018 01:22 15,0 C 13,3 C 13,9 C 64 % 1013,9 hPa 0,0 l/m 0 min 0 min 0 W/m 0,0 km/h (0 Bft) 100,00 %
02.07.2018 01:24 14,9 C 13,3 C 13,9 C 65 % 1013,9 hPa 0,0 l/m 0 min 0 min 0 W/m 0,0 km/h (0 Bft) 100,00 %
02.07.2018 01:26 14,9 C 13,9 C 13,3 C 64 % 1014,0 hPa 0,0 l/m 0 min 0 min 0 W/m 0,0 km/h (0 Bft) 100,00 %
02.07.2018 01:28 14,9 C 13,9 C 13,3 C 64 % 1014,0 hPa 0,0 l/m 0 min 0 min 0 W/m 0,0 km/h (0 Bft) 100,00 %
02.07.2018 01:30 14,8 C 13,3 C 13,9 C 64 % 1014,0 hPa 0,0 l/m 0 min 0 min 0 W/m 0,0 km/h (0 Bft) 100,00 %
02.07.2018 01:32 14,8 C 13,3 C 13,9 C 64 % 1014,0 hPa 0,0 l/m 0 min 0 min 0 W/m 0,0 km/h (0 Bft) 100,00 %
02.07.2018 01:34 14,8 C 13,3 C 13,9 C 64 % 1014,0 hPa 0,0 l/m 0 min 0 min 0 W/m 4,5 km/h (1 Bft) 100,00 %
02.07.2018 01:36 14,8 C 13,9 C 13,9 C 64 % 1014,0 hPa 0,0 l/m 0 min 0 min 0 W/m 2,3 km/h (1 Bft) 100,00 %
02.07.2018 01:38 14,7 C 13,3 C 13,9 C 64 % 1013,9 hPa 0,0 l/m 0 min 0 min 0 W/m 4,5 km/h (1 Bft) 100,00 %
02.07.2018 01:40 14,7 C 13,9 C 13,9 C 64 % 1013,9 hPa 0,0 l/m 0 min 0 min 0 W/m 4,5 km/h (1 Bft) 100,00 %
02.07.2018 01:42 14,7 C 13,9 C 13,9 C 64 % 1013,8 hPa 0,0 l/m 0 min 0 min 0 W/m 2,3 km/h (1 Bft) 100,00 %
02.07.2018 01:44 14,7 C 13,9 C 13,9 C 64 % 1013,8 hPa 0,0 l/m 0 min 0 min 0 W/m 2,3 km/h (1 Bft) 100,00 %
02.07.2018 01:46 14,7 C 13,9 C 13,9 C 64 % 1013,7 hPa 0,0 l/m 0 min 0 min 0 W/m 0,0 km/h (0 Bft) 100,00 %
02.07.2018 01:48 14,7 C 13,9 C 13,9 C 64 % 1013,8 hPa 0,0 l/m 0 min 0 min 0 W/m 2,3 km/h (1 Bft) 100,00 %
02.07.2018 01:50 14,6 C 13,9 C 13,9 C 64 % 1013,7 hPa 0,0 l/m 0 min 0 min 0 W/m 0,0 km/h (0 Bft) 100,00 %
02.07.2018 01:52 14,6 C 13,9 C 13,9 C 64 % 1013,7 hPa 0,0 l/m 0 min 0 min 0 W/m 0,0 km/h (0 Bft) 97,92 %
02.07.2018 01:54 14,6 C 13,9 C 13,9 C 64 % 1013,7 hPa 0,0 l/m 0 min 0 min 0 W/m 0,0 km/h (0 Bft) 97,87 %
02.07.2018 01:56 14,6 C 13,9 C 13,9 C 64 % 1013,7 hPa 0,0 l/m 0 min 0 min 0 W/m 0,0 km/h (0 Bft) 100,00 %
02.07.2018 01:58 14,6 C 13,9 C 13,9 C 64 % 1013,7 hPa 0,0 l/m 0 min 0 min 0 W/m 0,0 km/h (0 Bft) 96,55 %
02.07.2018 02:00 14,6 C 13,9 C 14,4 C 64 % 1013,7 hPa 0,0 l/m 0 min 0 min 0 W/m 0,0 km/h (0 Bft) 97,14 %
02.07.2018 02:02 14,6 C 13,9 C 14,4 C 64 % 1013,7 hPa 0,0 l/m 0 min 0 min 0 W/m 0,0 km/h (0 Bft) 93,22 %
02.07.2018 02:04 14,6 C 13,9 C 14,4 C 64 % 1013,6 hPa 0,0 l/m 0 min 0 min 0 W/m 0,0 km/h (0 Bft) 97,87 %
02.07.2018 02:08 14,6 C 13,9 C 14,4 C 63 % 1013,6 hPa 0,0 l/m 0 min 0 min 0 W/m 0,0 km/h (0 Bft) 95,18 %
02.07.2018 02:10 14,6 C 13,9 C 14,4 C 63 % 1013,6 hPa 0,0 l/m 0 min 0 min 0 W/m 4,5 km/h (1 Bft) 97,87 %
02.07.2018 02:12 14,6 C 13,9 C 13,9 C 63 % 1013,6 hPa 0,0 l/m 0 min 0 min 0 W/m 2,3 km/h (1 Bft) 97,83 %
02.07.2018 02:14 14,6 C 13,3 C 14,4 C 63 % 1013,5 hPa 0,0 l/m 0 min 0 min 0 W/m 2,3 km/h (1 Bft) 97,87 %
02.07.2018 02:16 14,5 C 13,9 C 14,4 C 63 % 1013,5 hPa 0,0 l/m 0 min 0 min 0 W/m 4,5 km/h (1 Bft) 95,74 %
02.07.2018 02:18 14,5 C 13,9 C 13,9 C 63 % 1013,5 hPa 0,0 l/m 0 min 0 min 0 W/m 4,5 km/h (1 Bft) 95,74 %
02.07.2018 02:20 14,5 C 13,9 C 13,9 C 63 % 1013,6 hPa 0,0 l/m 0 min 0 min 0 W/m 4,5 km/h (1 Bft) 94,83 %
02.07.2018 02:22 14,5 C 13,9 C 13,9 C 63 % 1013,6 hPa 0,0 l/m 0 min 0 min 0 W/m 4,5 km/h (1 Bft) 91,89 %
02.07.2018 02:24 14,5 C 13,3 C 13,9 C 64 % 1013,6 hPa 0,0 l/m 0 min 0 min 0 W/m 2,3 km/h (1 Bft) 95,65 %
02.07.2018 02:26 14,5 C 13,3 C 13,9 C 64 % 1013,6 hPa 0,0 l/m 0 min 0 min 0 W/m 2,3 km/h (1 Bft) 95,74 %
02.07.2018 02:28 14,5 C 13,3 C 13,9 C 64 % 1013,6 hPa 0,0 l/m 0 min 0 min 0 W/m 2,3 km/h (1 Bft) 95,74 %
02.07.2018 02:30 14,5 C 13,3 C 13,9 C 64 % 1013,6 hPa 0,0 l/m 0 min 0 min 0 W/m 4,5 km/h (1 Bft) 95,74 %
02.07.2018 02:32 14,4 C 13,3 C 13,9 C 64 % 1013,6 hPa 0,0 l/m 0 min 0 min 0 W/m 4,5 km/h (1 Bft) 97,87 %
02.07.2018 02:34 14,4 C 13,3 C 13,9 C 64 % 1013,6 hPa 0,0 l/m 0 min 0 min 0 W/m 2,3 km/h (1 Bft) 93,48 %
02.07.2018 02:36 14,4 C 13,3 C 13,9 C 64 % 1013,6 hPa 0,0 l/m 0 min 0 min 0 W/m 2,3 km/h (1 Bft) 95,74 %
02.07.2018 02:38 14,4 C 13,3 C 13,9 C 64 % 1013,6 hPa 0,0 l/m 0 min 0 min 0 W/m 4,5 km/h (1 Bft) 93,62 %
02.07.2018 02:40 14,4 C 13,3 C 13,9 C 64 % 1013,6 hPa 0,0 l/m 0 min 0 min 0 W/m 2,3 km/h (1 Bft) 93,62 %
02.07.2018 02:42 14,4 C 13,3 C 13,9 C 64 % 1013,6 hPa 0,0 l/m 0 min 0 min 0 W/m 2,3 km/h (1 Bft) 93,62 %
02.07.2018 02:44 14,4 C 13,3 C 13,9 C 64 % 1013,6 hPa 0,0 l/m 0 min 0 min 0 W/m 2,3 km/h (1 Bft) 93,62 %
02.07.2018 02:46 14,4 C 13,3 C 13,9 C 64 % 1013,5 hPa 0,0 l/m 0 min 0 min 0 W/m 2,3 km/h (1 Bft) 91,30 %
02.07.2018 02:48 14,4 C 13,3 C 13,9 C 64 % 1013,5 hPa 0,0 l/m 0 min 0 min 0 W/m 2,3 km/h (1 Bft) 93,62 %
02.07.2018 02:50 14,4 C 13,3 C 13,9 C 64 % 1013,5 hPa 0,0 l/m 0 min 0 min 0 W/m 2,3 km/h (1 Bft) 93,62 %
02.07.2018 02:52 14,4 C 13,3 C 13,9 C 64 % 1013,5 hPa 0,0 l/m 0 min 0 min 0 W/m 4,5 km/h (1 Bft) 93,75 %
02.07.2018 02:54 14,4 C 13,3 C 13,9 C 64 % 1013,5 hPa 0,0 l/m 0 min 0 min 0 W/m 4,5 km/h (1 Bft) 95,74 %
02.07.2018 02:56 14,3 C 13,3 C 13,9 C 64 % 1013,5 hPa 0,0 l/m 0 min 0 min 0 W/m 4,5 km/h (1 Bft) 93,62 %
02.07.2018 02:58 14,3 C 13,3 C 13,9 C 64 % 1013,5 hPa 0,0 l/m 0 min 0 min 0 W/m 2,3 km/h (1 Bft) 97,83 %
02.07.2018 03:00 14,3 C 13,3 C 13,9 C 64 % 1013,5 hPa 0,0 l/m 0 min 0 min 0 W/m 6,8 km/h (2 Bft) 97,87 %
02.07.2018 03:02 14,3 C 13,3 C 13,9 C 64 % 1013,5 hPa 0,0 l/m 0 min 0 min 0 W/m 4,5 km/h (1 Bft) 93,62 %
02.07.2018 03:04 14,3 C 13,3 C 13,9 C 64 % 1013,5 hPa 0,0 l/m 0 min 0 min 0 W/m 2,3 km/h (1 Bft) 95,74 %
02.07.2018 03:06 14,2 C 13,3 C 13,9 C 64 % 1013,6 hPa 0,0 l/m 0 min 0 min 0 W/m 2,3 km/h (1 Bft) 95,74 %
02.07.2018 03:08 14,2 C 13,3 C 13,9 C 64 % 1013,5 hPa 0,0 l/m 0 min 0 min 0 W/m 2,3 km/h (1 Bft) 95,74 %
02.07.2018 03:10 14,2 C 13,3 C 13,9 C 64 % 1013,6 hPa 0,0 l/m 0 min 0 min 0 W/m 0,0 km/h (0 Bft) 95,65 %
02.07.2018 03:12 14,2 C 13,3 C 13,3 C 63 % 1013,5 hPa 0,0 l/m 0 min 0 min 0 W/m 0,0 km/h (0 Bft) 91,49 %
02.07.2018 03:14 14,2 C 12,8 C 13,3 C 63 % 1013,5 hPa 0,0 l/m 0 min 0 min 0 W/m 2,3 km/h (1 Bft) 95,74 %
02.07.2018 03:16 14,2 C 13,3 C 13,3 C 63 % 1013,5 hPa 0,0 l/m 0 min 0 min 0 W/m 2,3 km/h (1 Bft) 97,87 %
02.07.2018 03:18 14,2 C 12,8 C 13,3 C 63 % 1013,5 hPa 0,0 l/m 0 min 0 min 0 W/m 2,3 km/h (1 Bft) 95,74 %
02.07.2018 03:20 14,2 C 12,8 C 13,3 C 65 % 1013,5 hPa 0,0 l/m 0 min 0 min 0 W/m 2,3 km/h (1 Bft) 97,87 %
02.07.2018 03:22 14,2 C 12,8 C 13,3 C 65 % 1013,5 hPa 0,0 l/m 0 min 0 min 0 W/m 2,3 km/h (1 Bft) 97,87 %
02.07.2018 03:24 14,2 C 12,8 C 12,8 C 65 % 1013,5 hPa 0,0 l/m 0 min 0 min 0 W/m 2,3 km/h (1 Bft) 95,74 %
02.07.2018 03:26 14,2 C 12,8 C 12,8 C 65 % 1013,5 hPa 0,0 l/m 0 min 0 min 0 W/m 2,3 km/h (1 Bft) 97,87 %
02.07.2018 03:28 14,2 C 12,8 C 12,8 C 66 % 1013,5 hPa 0,0 l/m 0 min 0 min 0 W/m 2,3 km/h (1 Bft) 97,87 %
02.07.2018 03:30 14,2 C 12,8 C 12,8 C 66 % 1013,5 hPa 0,0 l/m 0 min 0 min 0 W/m 2,3 km/h (1 Bft) 95,74 %
02.07.2018 03:32 14,2 C 12,8 C 12,8 C 66 % 1013,4 hPa 0,0 l/m 0 min 0 min 0 W/m 2,3 km/h (1 Bft) 97,87 %
02.07.2018 03:34 14,2 C 12,8 C 12,8 C 65 % 1013,4 hPa 0,0 l/m 0 min 0 min 0 W/m 2,3 km/h (1 Bft) 95,65 %
02.07.2018 03:36 14,1 C 12,8 C 12,8 C 65 % 1013,5 hPa 0,0 l/m 0 min 0 min 0 W/m 0,0 km/h (0 Bft) 97,92 %
02.07.2018 03:38 14,0 C 12,8 C 12,8 C 65 % 1013,5 hPa 0,0 l/m 0 min 0 min 0 W/m 0,0 km/h (0 Bft) 100,00 %
02.07.2018 03:40 14,0 C 12,8 C 12,8 C 65 % 1013,6 hPa 0,0 l/m 0 min 0 min 0 W/m 0,0 km/h (0 Bft) 100,00 %
02.07.2018 03:42 13,9 C 12,8 C 12,8 C 65 % 1013,6 hPa 0,0 l/m 0 min 0 min 0 W/m 2,3 km/h (1 Bft) 95,74 %
02.07.2018 03:44 13,9 C 12,8 C 12,8 C 65 % 1013,6 hPa 0,0 l/m 0 min 0 min 0 W/m 4,5 km/h (1 Bft) 100,00 %
02.07.2018 03:46 13,9 C 12,8 C 12,8 C 65 % 1013,6 hPa 0,0 l/m 0 min 0 min 0 W/m 0,0 km/h (0 Bft) 97,87 %
02.07.2018 03:48 13,8 C 12,8 C 12,8 C 65 % 1013,5 hPa 0,0 l/m 0 min 0 min 0 W/m 2,3 km/h (1 Bft) 100,00 %
02.07.2018 03:50 13,8 C 12,8 C 12,8 C 65 % 1013,5 hPa 0,0 l/m 0 min 0 min 0 W/m 2,3 km/h (1 Bft) 97,87 %
02.07.2018 03:52 13,8 C 12,2 C 12,8 C 66 % 1013,5 hPa 0,0 l/m 0 min 0 min 0 W/m 2,3 km/h (1 Bft) 100,00 %
02.07.2018 03:54 13,8 C 12,2 C 12,8 C 66 % 1013,6 hPa 0,0 l/m 0 min 0 min 0 W/m 2,3 km/h (1 Bft) 97,87 %
02.07.2018 03:56 13,7 C 12,2 C 12,8 C 66 % 1013,6 hPa 0,0 l/m 0 min 0 min 0 W/m 2,3 km/h (1 Bft) 97,83 %
02.07.2018 03:58 13,7 C 12,2 C 12,8 C 66 % 1013,6 hPa 0,0 l/m 0 min 0 min 0 W/m 2,3 km/h (1 Bft) 100,00 %
02.07.2018 04:00 13,7 C 12,2 C 12,8 C 66 % 1013,7 hPa 0,0 l/m 0 min 0 min 0 W/m 0,0 km/h (0 Bft) 100,00 %
02.07.2018 04:02 13,7 C 12,2 C 12,8 C 66 % 1013,7 hPa 0,0 l/m 0 min 0 min 0 W/m 0,0 km/h (0 Bft) 95,83 %
02.07.2018 04:04 13,6 C 12,8 C 12,8 C 66 % 1013,8 hPa 0,0 l/m 0 min 0 min 0 W/m 0,0 km/h (0 Bft) 97,87 %
02.07.2018 04:06 13,6 C 12,2 C 12,8 C 66 % 1013,7 hPa 0,0 l/m 0 min 0 min 0 W/m 2,3 km/h (1 Bft) 97,87 %
02.07.2018 04:08 13,6 C 12,2 C 12,8 C 66 % 1013,7 hPa 0,0 l/m 0 min 0 min 0 W/m 2,3 km/h (1 Bft) 100,00 %
02.07.2018 04:10 13,6 C 12,2 C 12,8 C 66 % 1013,7 hPa 0,0 l/m 0 min 0 min 0 W/m 2,3 km/h (1 Bft) 100,00 %
02.07.2018 04:12 13,5 C 12,2 C 12,8 C 67 % 1013,7 hPa 0,0 l/m 0 min 0 min 0 W/m 2,3 km/h (1 Bft) 100,00 %
02.07.2018 04:14 13,5 C 12,2 C 12,8 C 67 % 1013,7 hPa 0,0 l/m 0 min 0 min 0 W/m 2,3 km/h (1 Bft) 97,87 %
02.07.2018 04:16 13,4 C 12,2 C 12,8 C 67 % 1013,7 hPa 0,0 l/m 0 min 0 min 0 W/m 2,3 km/h (1 Bft) 97,87 %
02.07.2018 04:18 13,4 C 12,2 C 12,8 C 67 % 1013,7 hPa 0,0 l/m 0 min 0 min 0 W/m 0,0 km/h (0 Bft) 100,00 %
02.07.2018 04:20 13,4 C 12,2 C 12,8 C 67 % 1013,7 hPa 0,0 l/m 0 min 0 min 0 W/m 2,3 km/h (1 Bft) 97,83 %
02.07.2018 04:22 13,4 C 12,2 C 12,8 C 67 % 1013,7 hPa 0,0 l/m 0 min 0 min 0 W/m 2,3 km/h (1 Bft) 97,87 %
02.07.2018 04:24 13,3 C 12,2 C 12,8 C 67 % 1013,7 hPa 0,0 l/m 0 min 0 min 0 W/m 2,3 km/h (1 Bft) 97,87 %
02.07.2018 04:26 13,3 C 12,2 C 12,2 C 67 % 1013,7 hPa 0,0 l/m 0 min 0 min 0 W/m 4,5 km/h (1 Bft) 97,87 %
02.07.2018 04:28 13,3 C 11,7 C 12,2 C 67 % 1013,7 hPa 0,0 l/m 0 min 0 min 0 W/m 2,3 km/h (1 Bft) 97,87 %
02.07.2018 04:30 13,3 C 11,7 C 12,8 C 67 % 1013,7 hPa 0,0 l/m 0 min 0 min 0 W/m 4,5 km/h (1 Bft) 97,83 %
02.07.2018 04:32 13,2 C 11,7 C 12,8 C 68 % 1013,7 hPa 0,0 l/m 0 min 0 min 0 W/m 6,8 km/h (2 Bft) 97,87 %
02.07.2018 04:34 13,2 C 12,2 C 12,8 C 68 % 1013,7 hPa 0,0 l/m 0 min 0 min 0 W/m 4,5 km/h (1 Bft) 95,74 %
02.07.2018 04:36 13,2 C 12,2 C 12,8 C 67 % 1013,7 hPa 0,0 l/m 0 min 0 min 0 W/m 2,3 km/h (1 Bft) 95,74 %
02.07.2018 04:38 13,2 C 12,2 C 12,8 C 68 % 1013,6 hPa 0,0 l/m 0 min 0 min 0 W/m 4,5 km/h (1 Bft) 97,87 %
02.07.2018 04:40 13,1 C 11,7 C 12,8 C 68 % 1013,6 hPa 0,0 l/m 0 min 0 min 0 W/m 0,0 km/h (0 Bft) 97,87 %
02.07.2018 04:42 13,1 C 11,7 C 12,8 C 68 % 1013,6 hPa 0,0 l/m 0 min 0 min 0 W/m 0,0 km/h (0 Bft) 95,65 %
02.07.2018 04:44 13,1 C 11,7 C 12,2 C 68 % 1013,6 hPa 0,0 l/m 0 min 0 min 0 W/m 0,0 km/h (0 Bft) 97,87 %
02.07.2018 04:46 13,1 C 11,7 C 12,2 C 69 % 1013,6 hPa 0,0 l/m 0 min 0 min 0 W/m 0,0 km/h (0 Bft) 97,87 %
02.07.2018 04:48 13,1 C 11,7 C 12,2 C 69 % 1013,6 hPa 0,0 l/m 0 min 0 min 0 W/m 0,0 km/h (0 Bft) 97,87 %
02.07.2018 04:50 13,0 C 11,7 C 12,2 C 69 % 1013,7 hPa 0,0 l/m 0 min 0 min 0 W/m 0,0 km/h (0 Bft) 97,87 %
02.07.2018 04:52 13,0 C 11,7 C 12,2 C 69 % 1013,7 hPa 0,0 l/m 0 min 0 min 0 W/m 0,0 km/h (0 Bft) 97,87 %
02.07.2018 04:54 13,0 C 11,7 C 12,8 C 69 % 1013,7 hPa 0,0 l/m 0 min 0 min 0 W/m 0,0 km/h (0 Bft) 97,83 %
02.07.2018 04:56 12,9 C 11,7 C 12,8 C 69 % 1013,7 hPa 0,0 l/m 0 min 0 min 0 W/m 0,0 km/h (0 Bft) 97,87 %
02.07.2018 04:58 12,9 C 11,7 C 12,2 C 69 % 1013,7 hPa 0,0 l/m 0 min 0 min 0 W/m 0,0 km/h (0 Bft) 97,87 %
02.07.2018 05:00 12,9 C 11,7 C 12,2 C 69 % 1013,7 hPa 0,0 l/m 0 min 0 min 0 W/m 0,0 km/h (0 Bft) 100,00 %
02.07.2018 05:02 12,9 C 11,7 C 12,2 C 69 % 1013,5 hPa 0,0 l/m 0 min 0 min 0 W/m 0,0 km/h (0 Bft) 97,87 %
02.07.2018 05:04 12,8 C 11,7 C 12,2 C 69 % 1013,6 hPa 0,0 l/m 0 min 0 min 0 W/m 0,0 km/h (0 Bft) 100,00 %
02.07.2018 05:06 12,8 C 11,7 C 12,2 C 69 % 1013,5 hPa 0,0 l/m 0 min 0 min 0 W/m 0,0 km/h (0 Bft) 100,00 %
02.07.2018 05:08 12,8 C 11,7 C 12,8 C 69 % 1013,6 hPa 0,0 l/m 0 min 0 min 0 W/m 0,0 km/h (0 Bft) 100,00 %
02.07.2018 05:10 12,8 C 11,7 C 12,2 C 69 % 1013,6 hPa 0,0 l/m 0 min 0 min 0 W/m 0,0 km/h (0 Bft) 100,00 %
02.07.2018 05:12 12,8 C 11,7 C 12,2 C 69 % 1013,6 hPa 0,0 l/m 0 min 0 min 0 W/m 0,0 km/h (0 Bft) 97,87 %
02.07.2018 05:14 12,7 C 11,7 C 12,2 C 69 % 1013,6 hPa 0,0 l/m 0 min 0 min 0 W/m 0,0 km/h (0 Bft) 100,00 %
02.07.2018 05:16 12,7 C 11,7 C 12,2 C 69 % 1013,5 hPa 0,0 l/m 0 min 0 min 0 W/m 0,0 km/h (0 Bft) 100,00 %
02.07.2018 05:18 12,7 C 11,7 C 12,2 C 69 % 1013,5 hPa 0,0 l/m 0 min 0 min 1 W/m 0,0 km/h (0 Bft) 100,00 %
02.07.2018 05:20 12,7 C 11,7 C 12,2 C 69 % 1013,5 hPa 0,0 l/m 0 min 0 min 5 W/m 0,0 km/h (0 Bft) 100,00 %
02.07.2018 05:22 12,7 C 11,7 C 12,2 C 70 % 1013,5 hPa 0,0 l/m 0 min 0 min 5 W/m 0,0 km/h (0 Bft) 100,00 %
02.07.2018 05:24 12,6 C 11,7 C 12,2 C 69 % 1013,5 hPa 0,0 l/m 0 min 0 min 5 W/m 0,0 km/h (0 Bft) 100,00 %
02.07.2018 05:26 12,6 C 11,7 C 12,2 C 70 % 1013,5 hPa 0,0 l/m 0 min 0 min 5 W/m 0,0 km/h (0 Bft) 100,00 %
02.07.2018 05:28 12,6 C 11,7 C 12,2 C 70 % 1013,5 hPa 0,0 l/m 0 min 0 min 7 W/m 4,5 km/h (1 Bft) 100,00 %
02.07.2018 05:30 12,6 C 11,7 C 12,2 C 70 % 1013,5 hPa 0,0 l/m 0 min 0 min 7 W/m 4,5 km/h (1 Bft) 100,00 %
02.07.2018 05:32 12,6 C 11,7 C 12,2 C 70 % 1013,5 hPa 0,0 l/m 0 min 0 min 7 W/m 4,5 km/h (1 Bft) 100,00 %
02.07.2018 05:34 12,6 C 11,7 C 12,2 C 70 % 1013,7 hPa 0,0 l/m 0 min 0 min 8 W/m 4,5 km/h (1 Bft) 100,00 %
02.07.2018 05:35 12,6 C 11,7 C 12,2 C 70 % 1013,6 hPa 0,0 l/m 0 min 0 min 8 W/m 4,5 km/h (1 Bft) 100,00 %
02.07.2018 05:40 12,5 C 11,7 C 12,2 C 70 % 1013,7 hPa 0,0 l/m 0 min 0 min 9 W/m 2,3 km/h (1 Bft) 91,67 %
02.07.2018 05:42 12,5 C 11,7 C 12,2 C 71 % 1013,7 hPa 0,0 l/m 0 min 0 min 11 W/m 0,0 km/h (0 Bft) 94,74 %
02.07.2018 05:44 12,5 C 11,7 C 12,2 C 71 % 1013,7 hPa 0,0 l/m 0 min 0 min 11 W/m 0,0 km/h (0 Bft) 95,74 %
02.07.2018 05:46 12,5 C 11,1 C 12,2 C 71 % 1013,7 hPa 0,0 l/m 0 min 0 min 11 W/m 0,0 km/h (0 Bft) 100,00 %
02.07.2018 05:48 12,4 C 11,1 C 12,2 C 71 % 1013,7 hPa 0,0 l/m 0 min 0 min 12 W/m 0,0 km/h (0 Bft) 100,00 %
02.07.2018 05:50 12,4 C 11,1 C 12,2 C 71 % 1013,8 hPa 0,0 l/m 0 min 0 min 12 W/m 0,0 km/h (0 Bft) 100,00 %
02.07.2018 05:52 12,4 C 11,1 C 12,2 C 71 % 1013,7 hPa 0,0 l/m 0 min 0 min 12 W/m 0,0 km/h (0 Bft) 100,00 %
02.07.2018 05:54 12,4 C 11,1 C 12,2 C 71 % 1013,8 hPa 0,0 l/m 0 min 0 min 12 W/m 0,0 km/h (0 Bft) 100,00 %
02.07.2018 05:56 12,4 C 11,1 C 12,2 C 72 % 1013,9 hPa 0,0 l/m 0 min 0 min 14 W/m 0,0 km/h (0 Bft) 100,00 %
02.07.2018 05:58 12,4 C 11,1 C 12,2 C 72 % 1013,9 hPa 0,0 l/m 0 min 0 min 14 W/m 0,0 km/h (0 Bft) 100,00 %
02.07.2018 06:00 12,4 C 11,1 C 12,2 C 72 % 1013,9 hPa 0,0 l/m 0 min 0 min 14 W/m 0,0 km/h (0 Bft) 100,00 %
02.07.2018 06:02 12,4 C 11,1 C 12,2 C 72 % 1013,9 hPa 0,0 l/m 0 min 0 min 15 W/m 0,0 km/h (0 Bft) 100,00 %
02.07.2018 06:04 12,3 C 11,1 C 12,2 C 72 % 1013,9 hPa 0,0 l/m 0 min 0 min 16 W/m 0,0 km/h (0 Bft) 97,87 %
02.07.2018 06:08 12,3 C 11,7 C 12,2 C 72 % 1013,9 hPa 0,0 l/m 0 min 0 min 16 W/m 0,0 km/h (0 Bft) 95,83 %
02.07.2018 06:10 12,3 C 11,7 C 12,2 C 72 % 1013,9 hPa 0,0 l/m 0 min 0 min 17 W/m 0,0 km/h (0 Bft) 97,87 %
02.07.2018 06:12 12,3 C 11,7 C 12,2 C 72 % 1013,9 hPa 0,0 l/m 0 min 0 min 18 W/m 0,0 km/h (0 Bft) 95,74 %
02.07.2018 06:14 12,3 C 11,7 C 12,2 C 72 % 1013,9 hPa 0,0 l/m 0 min 0 min 18 W/m 0,0 km/h (0 Bft) 95,74 %
02.07.2018 06:16 12,3 C 11,7 C 12,2 C 72 % 1013,9 hPa 0,0 l/m 0 min 0 min 18 W/m 0,0 km/h (0 Bft) 95,65 %
02.07.2018 06:18 12,2 C 11,7 C 12,2 C 72 % 1013,8 hPa 0,0 l/m 0 min 0 min 19 W/m 0,0 km/h (0 Bft) 93,62 %
02.07.2018 06:20 12,2 C 11,7 C 12,2 C 73 % 1013,9 hPa 0,0 l/m 0 min 0 min 19 W/m 0,0 km/h (0 Bft) 97,87 %
02.07.2018 06:22 12,2 C 11,7 C 12,2 C 73 % 1013,9 hPa 0,0 l/m 0 min 0 min 19 W/m 0,0 km/h (0 Bft) 93,62 %
02.07.2018 06:24 12,2 C 11,7 C 12,2 C 73 % 1013,9 hPa 0,0 l/m 0 min 0 min 19 W/m 0,0 km/h (0 Bft) 95,74 %
02.07.2018 06:26 12,2 C 11,7 C 12,2 C 74 % 1013,9 hPa 0,0 l/m 0 min 0 min 20 W/m 0,0 km/h (0 Bft) 97,87 %
02.07.2018 06:28 12,2 C 11,7 C 12,2 C 74 % 1014,0 hPa 0,0 l/m 0 min 0 min 21 W/m 0,0 km/h (0 Bft) 95,65 %
02.07.2018 06:30 12,2 C 11,7 C 12,2 C 74 % 1014,0 hPa 0,0 l/m 0 min 0 min 21 W/m 0,0 km/h (0 Bft) 95,74 %
02.07.2018 06:32 12,2 C 11,7 C 12,2 C 74 % 1014,0 hPa 0,0 l/m 0 min 0 min 21 W/m 0,0 km/h (0 Bft) 93,62 %
02.07.2018 06:34 12,2 C 11,7 C 12,2 C 74 % 1014,1 hPa 0,0 l/m 0 min 0 min 21 W/m 0,0 km/h (0 Bft) 95,74 %
02.07.2018 06:36 12,2 C 11,7 C 12,2 C 74 % 1014,1 hPa 0,0 l/m 0 min 0 min 22 W/m 0,0 km/h (0 Bft) 95,74 %
02.07.2018 06:38 12,2 C 11,7 C 12,2 C 74 % 1014,0 hPa 0,0 l/m 0 min 0 min 23 W/m 0,0 km/h (0 Bft) 95,74 %
02.07.2018 06:40 12,2 C 11,7 C 12,2 C 74 % 1014,0 hPa 0,0 l/m 0 min 0 min 23 W/m 0,0 km/h (0 Bft) 93,48 %
02.07.2018 06:42 12,2 C 11,7 C 12,2 C 74 % 1014,0 hPa 0,0 l/m 0 min 0 min 23 W/m 0,0 km/h (0 Bft) 95,74 %
02.07.2018 06:44 12,2 C 12,2 C 12,8 C 75 % 1014,0 hPa 0,0 l/m 0 min 0 min 24 W/m 0,0 km/h (0 Bft) 95,74 %
02.07.2018 06:46 12,2 C 12,2 C 12,8 C 75 % 1013,9 hPa 0,0 l/m 0 min 0 min 25 W/m 0,0 km/h (0 Bft) 95,74 %
02.07.2018 06:48 12,2 C 12,2 C 12,8 C 75 % 1013,9 hPa 0,0 l/m 0 min 0 min 25 W/m 0,0 km/h (0 Bft) 93,62 %
02.07.2018 06:50 12,2 C 12,2 C 12,8 C 75 % 1013,9 hPa 0,0 l/m 0 min 0 min 25 W/m 0,0 km/h (0 Bft) 93,62 %
02.07.2018 06:52 12,2 C 12,2 C 12,8 C 75 % 1013,9 hPa 0,0 l/m 0 min 0 min 25 W/m 0,0 km/h (0 Bft) 95,92 %
02.07.2018 06:54 12,2 C 12,2 C 12,8 C 75 % 1014,0 hPa 0,0 l/m 0 min 0 min 26 W/m 0,0 km/h (0 Bft) 95,74 %
02.07.2018 06:56 12,2 C 12,2 C 12,8 C 75 % 1014,0 hPa 0,0 l/m 0 min 0 min 26 W/m 0,0 km/h (0 Bft) 95,74 %
02.07.2018 06:58 12,3 C 12,2 C 12,8 C 75 % 1014,0 hPa 0,0 l/m 0 min 0 min 26 W/m 0,0 km/h (0 Bft) 97,87 %
02.07.2018 07:00 12,3 C 12,8 C 12,8 C 76 % 1014,0 hPa 0,0 l/m 0 min 0 min 26 W/m 4,5 km/h (1 Bft) 97,87 %
02.07.2018 07:02 12,3 C 12,8 C 12,8 C 76 % 1014,0 hPa 0,0 l/m 0 min 0 min 26 W/m 4,5 km/h (1 Bft) 91,67 %
02.07.2018 07:04 12,3 C 12,8 C 12,8 C 76 % 1013,9 hPa 0,0 l/m 0 min 0 min 26 W/m 2,3 km/h (1 Bft) 97,87 %
02.07.2018 07:06 12,3 C 12,8 C 13,3 C 76 % 1013,8 hPa 0,0 l/m 0 min 0 min 28 W/m 4,5 km/h (1 Bft) 95,74 %
02.07.2018 07:08 12,4 C 12,8 C 13,3 C 76 % 1013,8 hPa 0,0 l/m 0 min 0 min 28 W/m 6,8 km/h (2 Bft) 97,87 %
02.07.2018 07:10 12,4 C 13,3 C 13,3 C 76 % 1013,8 hPa 0,0 l/m 0 min 0 min 28 W/m 6,8 km/h (2 Bft) 97,87 %
02.07.2018 07:12 12,4 C 13,3 C 13,3 C 76 % 1013,9 hPa 0,0 l/m 0 min 0 min 28 W/m 4,5 km/h (1 Bft) 93,48 %
02.07.2018 07:14 12,5 C 13,3 C 13,3 C 76 % 1013,9 hPa 0,0 l/m 0 min 0 min 30 W/m 6,8 km/h (2 Bft) 97,87 %
02.07.2018 07:16 12,5 C 13,3 C 13,3 C 76 % 1014,0 hPa 0,0 l/m 0 min 0 min 30 W/m 6,8 km/h (2 Bft) 95,74 %
02.07.2018 07:18 12,6 C 13,3 C 13,3 C 76 % 1013,9 hPa 0,0 l/m 0 min 0 min 30 W/m 6,8 km/h (2 Bft) 97,87 %
02.07.2018 07:20 12,6 C 13,9 C 13,3 C 76 % 1013,9 hPa 0,0 l/m 0 min 0 min 30 W/m 6,8 km/h (2 Bft) 97,87 %
02.07.2018 07:22 12,6 C 13,9 C 13,3 C 76 % 1013,8 hPa 0,0 l/m 0 min 0 min 32 W/m 4,5 km/h (1 Bft) 96,30 %
02.07.2018 07:24 12,7 C 13,9 C 13,9 C 76 % 1013,9 hPa 0,0 l/m 0 min 0 min 32 W/m 6,8 km/h (2 Bft) 96,00 %
02.07.2018 07:26 12,7 C 13,9 C 13,9 C 76 % 1013,8 hPa 0,0 l/m 0 min 0 min 32 W/m 9,0 km/h (2 Bft) 97,87 %
02.07.2018 07:28 12,8 C 13,9 C 13,9 C 75 % 1013,8 hPa 0,0 l/m 0 min 0 min 33 W/m 6,8 km/h (2 Bft) 97,83 %
02.07.2018 07:30 12,9 C 13,9 C 13,9 C 75 % 1013,8 hPa 0,0 l/m 0 min 0 min 33 W/m 4,5 km/h (1 Bft) 97,87 %
02.07.2018 07:32 12,9 C 14,4 C 13,9 C 75 % 1013,8 hPa 0,0 l/m 0 min 0 min 33 W/m 6,8 km/h (2 Bft) 95,74 %
02.07.2018 07:34 13,0 C 14,4 C 13,9 C 75 % 1013,9 hPa 0,0 l/m 0 min 0 min 33 W/m 4,5 km/h (1 Bft) 97,87 %
02.07.2018 07:36 13,1 C 14,4 C 13,9 C 75 % 1013,8 hPa 0,0 l/m 0 min 0 min 34 W/m 4,5 km/h (1 Bft) 97,92 %
02.07.2018 07:38 13,2 C 14,4 C 13,9 C 75 % 1013,8 hPa 0,0 l/m 0 min 0 min 35 W/m 6,8 km/h (2 Bft) 95,65 %
02.07.2018 07:40 13,3 C 14,4 C 14,4 C 74 % 1013,8 hPa 0,0 l/m 0 min 0 min 35 W/m 6,8 km/h (2 Bft) 95,74 %
02.07.2018 07:42 13,3 C 15,0 C 14,4 C 74 % 1013,7 hPa 0,0 l/m 0 min 0 min 35 W/m 6,8 km/h (2 Bft) 97,87 %
02.07.2018 07:44 13,4 C 15,0 C 14,4 C 74 % 1013,7 hPa 0,0 l/m 0 min 0 min 36 W/m 9,0 km/h (2 Bft) 97,87 %
02.07.2018 07:46 13,5 C 15,0 C 14,4 C 74 % 1013,8 hPa 0,0 l/m 0 min 0 min 37 W/m 4,5 km/h (1 Bft) 97,87 %
02.07.2018 07:48 13,6 C 15,0 C 14,4 C 74 % 1013,8 hPa 0,0 l/m 0 min 0 min 37 W/m 6,8 km/h (2 Bft) 95,74 %
02.07.2018 07:50 13,7 C 15,0 C 14,4 C 74 % 1013,8 hPa 0,0 l/m 0 min 0 min 37 W/m 4,5 km/h (1 Bft) 97,83 %
02.07.2018 07:52 13,7 C 15,0 C 14,4 C 74 % 1013,8 hPa 0,0 l/m 0 min 0 min 38 W/m 4,5 km/h (1 Bft) 97,37 %
02.07.2018 07:54 13,8 C 15,6 C 15,0 C 74 % 1013,8 hPa 0,0 l/m 0 min 0 min 39 W/m 4,5 km/h (1 Bft) 97,87 %
02.07.2018 07:56 13,9 C 15,6 C 15,0 C 74 % 1013,9 hPa 0,0 l/m 0 min 0 min 39 W/m 6,8 km/h (2 Bft) 97,87 %
02.07.2018 07:58 14,0 C 15,6 C 15,0 C 74 % 1013,8 hPa 0,0 l/m 0 min 0 min 39 W/m 4,5 km/h (1 Bft) 97,83 %
02.07.2018 08:00 14,1 C 16,7 C 15,0 C 73 % 1013,8 hPa 0,0 l/m 0 min 0 min 40 W/m 4,5 km/h (1 Bft) 95,74 %
02.07.2018 08:02 14,2 C 18,9 C 15,0 C 73 % 1013,7 hPa 0,0 l/m 0 min 0 min 40 W/m 4,5 km/h (1 Bft) 97,87 %
02.07.2018 08:04 14,2 C 20,6 C 15,0 C 74 % 1013,8 hPa 0,0 l/m 0 min 0 min 40 W/m 6,8 km/h (2 Bft) 97,87 %
02.07.2018 08:06 14,2 C 20,0 C 15,0 C 73 % 1013,9 hPa 0,0 l/m 0 min 0 min 41 W/m 9,0 km/h (2 Bft) 97,87 %
02.07.2018 08:08 14,3 C 20,0 C 15,0 C 73 % 1013,8 hPa 0,0 l/m 0 min 0 min 42 W/m 4,5 km/h (1 Bft) 97,87 %
02.07.2018 08:10 14,5 C 19,4 C 15,6 C 73 % 1013,8 hPa 0,0 l/m 0 min 0 min 71 W/m 4,5 km/h (1 Bft) 97,83 %
02.07.2018 08:12 14,6 C 20,0 C 15,6 C 73 % 1013,8 hPa 0,0 l/m 2 min 0 min 242 W/m 6,8 km/h (2 Bft) 100,00 %
02.07.2018 08:14 14,7 C 20,0 C 15,6 C 72 % 1013,8 hPa 0,0 l/m 2 min 0 min 316 W/m 6,8 km/h (2 Bft) 95,74 %
02.07.2018 08:16 14,9 C 19,4 C 15,6 C 71 % 1013,9 hPa 0,0 l/m 2 min 0 min 322 W/m 9,0 km/h (2 Bft) 100,00 %
02.07.2018 08:18 15,1 C 18,9 C 15,6 C 71 % 1013,9 hPa 0,0 l/m 2 min 0 min 328 W/m 6,8 km/h (2 Bft) 100,00 %
02.07.2018 08:20 15,2 C 18,3 C 15,6 C 70 % 1014,0 hPa 0,0 l/m 2 min 0 min 334 W/m 9,0 km/h (2 Bft) 100,00 %
02.07.2018 08:22 15,4 C 18,3 C 15,6 C 69 % 1014,0 hPa 0,0 l/m 2 min 0 min 340 W/m 6,8 km/h (2 Bft) 100,00 %
02.07.2018 08:24 15,6 C 18,3 C 15,6 C 68 % 1014,0 hPa 0,0 l/m 2 min 0 min 344 W/m 6,8 km/h (2 Bft) 97,83 %
02.07.2018 08:26 15,8 C 18,3 C 15,6 C 68 % 1014,0 hPa 0,0 l/m 2 min 0 min 350 W/m 6,8 km/h (2 Bft) 97,87 %
02.07.2018 08:28 15,9 C 18,3 C 16,1 C 67 % 1013,9 hPa 0,0 l/m 2 min 0 min 343 W/m 6,8 km/h (2 Bft) 100,00 %
02.07.2018 08:30 16,1 C 18,3 C 16,1 C 67 % 1014,0 hPa 0,0 l/m 2 min 0 min 347 W/m 6,8 km/h (2 Bft) 100,00 %
02.07.2018 08:32 16,3 C 18,3 C 16,1 C 66 % 1014,0 hPa 0,0 l/m 2 min 0 min 357 W/m 6,8 km/h (2 Bft) 100,00 %
02.07.2018 08:34 16,4 C 18,3 C 16,1 C 66 % 1014,0 hPa 0,0 l/m 2 min 0 min 282 W/m 9,0 km/h (2 Bft) 95,74 %
02.07.2018 08:36 16,6 C 18,3 C 16,1 C 66 % 1014,0 hPa 0,0 l/m 2 min 0 min 349 W/m 6,8 km/h (2 Bft) 100,00 %
02.07.2018 08:38 16,7 C 18,3 C 16,1 C 66 % 1014,0 hPa 0,0 l/m 2 min 0 min 372 W/m 6,8 km/h (2 Bft) 97,87 %
02.07.2018 08:40 16,9 C 18,3 C 16,1 C 65 % 1014,0 hPa 0,0 l/m 2 min 0 min 387 W/m 9,0 km/h (2 Bft) 97,87 %
02.07.2018 08:42 17,0 C 18,3 C 16,7 C 64 % 1013,9 hPa 0,0 l/m 2 min 0 min 392 W/m 4,5 km/h (1 Bft) 100,00 %
02.07.2018 08:44 17,1 C 18,3 C 16,7 C 64 % 1014,0 hPa 0,0 l/m 2 min 0 min 383 W/m 6,8 km/h (2 Bft) 100,00 %
02.07.2018 08:46 17,2 C 18,3 C 16,7 C 64 % 1014,0 hPa 0,0 l/m 2 min 0 min 402 W/m 6,8 km/h (2 Bft) 100,00 %
02.07.2018 08:48 17,3 C 18,9 C 16,7 C 64 % 1014,1 hPa 0,0 l/m 2 min 0 min 409 W/m 9,0 km/h (2 Bft) 97,83 %
02.07.2018 08:50 17,4 C 18,9 C 16,7 C 63 % 1014,0 hPa 0,0 l/m 2 min 0 min 416 W/m 6,8 km/h (2 Bft) 97,87 %
02.07.2018 08:52 17,5 C 18,9 C 16,7 C 62 % 1014,1 hPa 0,0 l/m 2 min 0 min 421 W/m 6,8 km/h (2 Bft) 100,00 %
02.07.2018 08:54 17,6 C 19,4 C 16,7 C 63 % 1014,0 hPa 0,0 l/m 2 min 0 min 427 W/m 4,5 km/h (1 Bft) 95,74 %
02.07.2018 08:56 17,7 C 19,4 C 16,7 C 62 % 1014,0 hPa 0,0 l/m 2 min 0 min 431 W/m 6,8 km/h (2 Bft) 95,74 %
02.07.2018 08:58 17,7 C 19,4 C 17,2 C 62 % 1014,0 hPa 0,0 l/m 2 min 0 min 437 W/m 4,5 km/h (1 Bft) 95,74 %
02.07.2018 09:00 17,8 C 19,4 C 17,2 C 61 % 1014,0 hPa 0,0 l/m 2 min 0 min 442 W/m 6,8 km/h (2 Bft) 93,48 %
02.07.2018 09:02 17,9 C 20,6 C 17,2 C 61 % 1014,0 hPa 0,0 l/m 2 min 0 min 447 W/m 9,0 km/h (2 Bft) 95,74 %
02.07.2018 09:04 17,9 C 20,6 C 17,2 C 61 % 1014,0 hPa 0,0 l/m 2 min 0 min 454 W/m 6,8 km/h (2 Bft) 95,74 %
02.07.2018 09:06 18,1 C 20,6 C 17,2 C 61 % 1014,1 hPa 0,0 l/m 2 min 0 min 457 W/m 6,8 km/h (2 Bft) 95,74 %
02.07.2018 09:08 18,1 C 20,6 C 17,2 C 61 % 1014,1 hPa 0,0 l/m 2 min 0 min 463 W/m 9,0 km/h (2 Bft) 91,49 %
02.07.2018 09:10 18,2 C 20,6 C 17,2 C 60 % 1014,2 hPa 0,0 l/m 2 min 0 min 468 W/m 6,8 km/h (2 Bft) 95,74 %
02.07.2018 09:12 18,3 C 20,0 C 17,2 C 61 % 1014,2 hPa 0,0 l/m 2 min 0 min 473 W/m 6,8 km/h (2 Bft) 95,65 %
02.07.2018 09:14 18,3 C 20,0 C 17,2 C 61 % 1014,1 hPa 0,0 l/m 2 min 0 min 478 W/m 6,8 km/h (2 Bft) 93,62 %
02.07.2018 09:16 18,4 C 20,0 C 17,8 C 60 % 1014,1 hPa 0,0 l/m 2 min 0 min 484 W/m 9,0 km/h (2 Bft) 95,74 %
02.07.2018 09:18 18,5 C 20,0 C 17,8 C 60 % 1014,2 hPa 0,0 l/m 2 min 0 min 490 W/m 6,8 km/h (2 Bft) 95,74 %
02.07.2018 09:20 18,6 C 20,0 C 17,8 C 60 % 1014,2 hPa 0,0 l/m 2 min 0 min 494 W/m 6,8 km/h (2 Bft) 95,74 %
02.07.2018 09:22 18,7 C 21,1 C 17,8 C 60 % 1014,2 hPa 0,0 l/m 2 min 0 min 499 W/m 4,5 km/h (1 Bft) 93,48 %
02.07.2018 09:24 18,8 C 21,7 C 17,8 C 60 % 1014,2 hPa 0,0 l/m 2 min 0 min 505 W/m 6,8 km/h (2 Bft) 95,74 %
02.07.2018 09:26 18,8 C 21,1 C 17,8 C 60 % 1014,2 hPa 0,0 l/m 2 min 0 min 509 W/m 6,8 km/h (2 Bft) 93,62 %
02.07.2018 09:28 18,9 C 21,1 C 17,8 C 60 % 1014,3 hPa 0,0 l/m 2 min 0 min 515 W/m 9,0 km/h (2 Bft) 95,74 %
02.07.2018 09:30 19,0 C 20,6 C 17,8 C 59 % 1014,3 hPa 0,0 l/m 2 min 0 min 521 W/m 6,8 km/h (2 Bft) 95,74 %
02.07.2018 09:32 19,0 C 20,6 C 17,8 C 58 % 1014,3 hPa 0,0 l/m 2 min 0 min 525 W/m 9,0 km/h (2 Bft) 91,49 %
02.07.2018 09:34 19,1 C 20,6 C 17,8 C 57 % 1014,2 hPa 0,0 l/m 2 min 0 min 530 W/m 6,8 km/h (2 Bft) 95,65 %
02.07.2018 09:36 19,2 C 20,6 C 17,8 C 58 % 1014,3 hPa 0,0 l/m 2 min 0 min 536 W/m 9,0 km/h (2 Bft) 100,00 %
02.07.2018 09:38 19,3 C 20,6 C 17,8 C 58 % 1014,2 hPa 0,0 l/m 2 min 0 min 540 W/m 9,0 km/h (2 Bft) 95,74 %
02.07.2018 09:40 19,4 C 20,6 C 18,3 C 57 % 1014,2 hPa 0,0 l/m 2 min 0 min 545 W/m 6,8 km/h (2 Bft) 97,87 %
02.07.2018 09:42 19,5 C 20,6 C 18,3 C 57 % 1014,2 hPa 0,0 l/m 2 min 0 min 550 W/m 4,5 km/h (1 Bft) 97,87 %
02.07.2018 09:44 19,6 C 20,6 C 18,3 C 56 % 1014,2 hPa 0,0 l/m 2 min 0 min 553 W/m 15,8 km/h (3 Bft) 95,65 %
02.07.2018 09:46 19,6 C 20,6 C 18,3 C 57 % 1014,2 hPa 0,0 l/m 2 min 0 min 561 W/m 6,8 km/h (2 Bft) 95,74 %
02.07.2018 09:48 19,7 C 20,6 C 18,3 C 57 % 1014,2 hPa 0,0 l/m 2 min 0 min 566 W/m 6,8 km/h (2 Bft) 97,87 %
02.07.2018 09:50 19,7 C 20,6 C 18,3 C 58 % 1014,2 hPa 0,0 l/m 2 min 0 min 571 W/m 6,8 km/h (2 Bft) 98,31 %
02.07.2018 09:52 19,8 C 21,1 C 18,3 C 58 % 1014,2 hPa 0,0 l/m 2 min 0 min 574 W/m 4,5 km/h (1 Bft) 97,14 %
02.07.2018 09:54 19,9 C 21,1 C 18,9 C 57 % 1014,3 hPa 0,0 l/m 2 min 0 min 582 W/m 4,5 km/h (1 Bft) 95,74 %
02.07.2018 09:56 19,9 C 21,1 C 18,9 C 57 % 1014,1 hPa 0,0 l/m 2 min 0 min 586 W/m 6,8 km/h (2 Bft) 100,00 %
02.07.2018 09:58 20,0 C 21,7 C 18,9 C 57 % 1014,1 hPa 0,0 l/m 2 min 0 min 591 W/m 6,8 km/h (2 Bft) 100,00 %
02.07.2018 10:00 20,1 C 22,8 C 18,9 C 57 % 1014,2 hPa 0,0 l/m 2 min 0 min 594 W/m 9,0 km/h (2 Bft) 100,00 %
02.07.2018 10:02 20,2 C 23,3 C 18,9 C 57 % 1014,2 hPa 0,0 l/m 2 min 0 min 598 W/m 6,8 km/h (2 Bft) 100,00 %
02.07.2018 10:04 20,2 C 22,8 C 18,9 C 56 % 1014,3 hPa 0,0 l/m 2 min 0 min 604 W/m 9,0 km/h (2 Bft) 100,00 %
02.07.2018 10:06 20,2 C 22,8 C 18,9 C 56 % 1014,3 hPa 0,0 l/m 2 min 0 min 610 W/m 9,0 km/h (2 Bft) 100,00 %
02.07.2018 10:08 20,3 C 22,2 C 18,9 C 56 % 1014,3 hPa 0,0 l/m 2 min 0 min 613 W/m 6,8 km/h (2 Bft) 100,00 %
02.07.2018 10:10 20,4 C 22,2 C 18,9 C 57 % 1014,3 hPa 0,0 l/m 2 min 0 min 618 W/m 9,0 km/h (2 Bft) 100,00 %
02.07.2018 10:12 20,4 C 21,7 C 18,9 C 56 % 1014,3 hPa 0,0 l/m 2 min 0 min 623 W/m 9,0 km/h (2 Bft) 97,87 %
02.07.2018 10:14 20,5 C 21,7 C 19,4 C 55 % 1014,2 hPa 0,0 l/m 2 min 0 min 629 W/m 9,0 km/h (2 Bft) 97,87 %
02.07.2018 10:16 20,5 C 21,7 C 19,4 C 56 % 1014,1 hPa 0,0 l/m 2 min 0 min 634 W/m 9,0 km/h (2 Bft) 100,00 %
02.07.2018 10:18 20,6 C 21,7 C 19,4 C 56 % 1014,2 hPa 0,0 l/m 2 min 0 min 637 W/m 9,0 km/h (2 Bft) 100,00 %
02.07.2018 10:20 20,6 C 21,7 C 19,4 C 56 % 1014,2 hPa 0,0 l/m 2 min 0 min 641 W/m 6,8 km/h (2 Bft) 100,00 %
02.07.2018 10:22 20,7 C 21,7 C 19,4 C 56 % 1014,2 hPa 0,0 l/m 2 min 0 min 647 W/m 9,0 km/h (2 Bft) 94,29 %
02.07.2018 10:24 20,7 C 22,2 C 19,4 C 55 % 1014,2 hPa 0,0 l/m 2 min 0 min 651 W/m 9,0 km/h (2 Bft) 97,87 %
02.07.2018 10:26 20,8 C 22,2 C 19,4 C 55 % 1014,1 hPa 0,0 l/m 2 min 0 min 656 W/m 13,5 km/h (3 Bft) 97,87 %
02.07.2018 10:28 20,8 C 22,2 C 19,4 C 55 % 1014,2 hPa 0,0 l/m 2 min 0 min 659 W/m 11,3 km/h (2 Bft) 97,87 %
02.07.2018 10:30 20,9 C 22,2 C 20,0 C 55 % 1014,1 hPa 0,0 l/m 2 min 0 min 665 W/m 6,8 km/h (2 Bft) 97,87 %
02.07.2018 10:32 21,0 C 22,2 C 20,0 C 55 % 1014,1 hPa 0,0 l/m 2 min 0 min 670 W/m 9,0 km/h (2 Bft) 97,83 %
02.07.2018 10:34 21,0 C 22,8 C 20,0 C 56 % 1014,1 hPa 0,0 l/m 2 min 0 min 673 W/m 6,8 km/h (2 Bft) 97,87 %
02.07.2018 10:36 21,1 C 22,8 C 20,0 C 56 % 1014,1 hPa 0,0 l/m 2 min 0 min 677 W/m 6,8 km/h (2 Bft) 96,23 %
02.07.2018 10:38 21,2 C 22,8 C 19,4 C 55 % 1014,1 hPa 0,0 l/m 2 min 0 min 684 W/m 6,8 km/h (2 Bft) 97,87 %
02.07.2018 10:40 21,2 C 22,8 C 20,0 C 55 % 1014,1 hPa 0,0 l/m 2 min 0 min 687 W/m 6,8 km/h (2 Bft) 97,87 %
02.07.2018 10:42 21,3 C 22,8 C 20,0 C 55 % 1014,0 hPa 0,0 l/m 2 min 0 min 692 W/m 6,8 km/h (2 Bft) 97,87 %
02.07.2018 10:44 21,4 C 22,8 C 20,0 C 55 % 1014,0 hPa 0,0 l/m 2 min 0 min 696 W/m 9,0 km/h (2 Bft) 97,87 %
02.07.2018 10:46 21,4 C 23,3 C 20,0 C 55 % 1014,0 hPa 0,0 l/m 2 min 0 min 700 W/m 9,0 km/h (2 Bft) 95,65 %
02.07.2018 10:48 21,6 C 23,3 C 20,0 C 54 % 1013,9 hPa 0,0 l/m 2 min 0 min 705 W/m 6,8 km/h (2 Bft) 97,87 %
02.07.2018 10:50 21,7 C 23,3 C 20,0 C 55 % 1014,0 hPa 0,0 l/m 2 min 0 min 709 W/m 4,5 km/h (1 Bft) 97,87 %
02.07.2018 10:52 21,7 C 23,9 C 20,0 C 53 % 1014,0 hPa 0,0 l/m 2 min 0 min 713 W/m 4,5 km/h (1 Bft) 97,87 %
02.07.2018 10:54 21,8 C 25,0 C 20,6 C 53 % 1014,0 hPa 0,0 l/m 2 min 0 min 717 W/m 6,8 km/h (2 Bft) 97,87 %
02.07.2018 10:56 21,9 C 26,1 C 20,6 C 53 % 1014,1 hPa 0,0 l/m 2 min 0 min 722 W/m 6,8 km/h (2 Bft) 97,87 %
02.07.2018 10:58 22,0 C 27,8 C 20,6 C 54 % 1014,1 hPa 0,0 l/m 2 min 0 min 725 W/m 6,8 km/h (2 Bft) 97,83 %
02.07.2018 11:00 22,1 C 27,8 C 20,6 C 53 % 1014,0 hPa 0,0 l/m 2 min 0 min 728 W/m 11,3 km/h (2 Bft) 97,87 %
02.07.2018 11:02 22,2 C 30,0 C 20,6 C 54 % 1014,0 hPa 0,0 l/m 2 min 0 min 730 W/m 6,8 km/h (2 Bft) 97,87 %
02.07.2018 11:04 22,3 C 31,1 C 20,6 C 54 % 1014,0 hPa 0,0 l/m 2 min 0 min 736 W/m 4,5 km/h (1 Bft) 97,87 %
02.07.2018 11:06 22,5 C 31,1 C 20,6 C 52 % 1014,0 hPa 0,0 l/m 2 min 0 min 740 W/m 9,0 km/h (2 Bft) 97,87 %
02.07.2018 11:08 22,6 C 30,0 C 20,6 C 52 % 1014,1 hPa 0,0 l/m 2 min 0 min 744 W/m 11,3 km/h (2 Bft) 97,87 %
02.07.2018 11:10 22,7 C 28,9 C 21,1 C 51 % 1014,1 hPa 0,0 l/m 2 min 0 min 748 W/m 11,3 km/h (2 Bft) 97,83 %
02.07.2018 11:12 22,8 C 28,9 C 21,1 C 52 % 1014,0 hPa 0,0 l/m 2 min 0 min 750 W/m 11,3 km/h (2 Bft) 97,87 %
02.07.2018 11:14 23,0 C 28,3 C 21,1 C 51 % 1014,0 hPa 0,0 l/m 2 min 0 min 754 W/m 9,0 km/h (2 Bft) 97,87 %
02.07.2018 11:16 23,2 C 30,6 C 21,1 C 50 % 1014,0 hPa 0,0 l/m 2 min 0 min 758 W/m 4,5 km/h (1 Bft) 100,00 %
02.07.2018 11:18 23,3 C 32,2 C 20,6 C 52 % 1014,0 hPa 0,0 l/m 2 min 0 min 763 W/m 6,8 km/h (2 Bft) 100,00 %
02.07.2018 11:20 23,4 C 32,2 C 21,1 C 50 % 1014,0 hPa 0,0 l/m 2 min 0 min 766 W/m 9,0 km/h (2 Bft) 95,74 %
02.07.2018 11:22 23,6 C 33,3 C 21,1 C 51 % 1014,0 hPa 0,0 l/m 2 min 0 min 769 W/m 9,0 km/h (2 Bft) 97,87 %
02.07.2018 11:24 23,8 C 34,4 C 21,7 C 51 % 1014,1 hPa 0,0 l/m 2 min 0 min 773 W/m 6,8 km/h (2 Bft) 97,87 %
02.07.2018 11:26 24,0 C 34,4 C 21,1 C 50 % 1014,0 hPa 0,0 l/m 2 min 0 min 776 W/m 6,8 km/h (2 Bft) 97,87 %
02.07.2018 11:28 24,2 C 33,9 C 21,1 C 50 % 1014,0 hPa 0,0 l/m 2 min 0 min 781 W/m 11,3 km/h (2 Bft) 93,62 %
02.07.2018 11:30 24,4 C 33,3 C 21,1 C 48 % 1014,0 hPa 0,0 l/m 2 min 0 min 784 W/m 9,0 km/h (2 Bft) 97,87 %
02.07.2018 11:32 24,5 C 34,4 C 21,1 C 49 % 1013,9 hPa 0,0 l/m 2 min 0 min 787 W/m 6,8 km/h (2 Bft) 97,83 %
02.07.2018 11:34 24,7 C 35,0 C 21,7 C 49 % 1013,9 hPa 0,0 l/m 2 min 0 min 789 W/m 6,8 km/h (2 Bft) 95,74 %
02.07.2018 11:36 24,8 C 35,0 C 21,7 C 48 % 1013,9 hPa 0,0 l/m 2 min 0 min 792 W/m 9,0 km/h (2 Bft) 97,92 %
02.07.2018 11:38 25,0 C 34,4 C 21,7 C 48 % 1014,0 hPa 0,0 l/m 2 min 0 min 795 W/m 6,8 km/h (2 Bft) 97,87 %
02.07.2018 11:40 25,1 C 34,4 C 21,7 C 47 % 1014,0 hPa 0,0 l/m 2 min 0 min 798 W/m 6,8 km/h (2 Bft) 97,87 %
02.07.2018 11:42 25,2 C 34,4 C 21,7 C 47 % 1013,9 hPa 0,0 l/m 2 min 0 min 801 W/m 9,0 km/h (2 Bft) 97,87 %
02.07.2018 11:44 25,4 C 35,0 C 22,2 C 47 % 1014,0 hPa 0,0 l/m 2 min 0 min 803 W/m 11,3 km/h (2 Bft) 97,83 %
02.07.2018 11:46 25,5 C 35,0 C 22,2 C 46 % 1014,0 hPa 0,0 l/m 2 min 0 min 808 W/m 6,8 km/h (2 Bft) 97,87 %
02.07.2018 11:48 25,6 C 35,0 C 22,2 C 46 % 1014,0 hPa 0,0 l/m 2 min 0 min 810 W/m 9,0 km/h (2 Bft) 97,87 %
02.07.2018 11:50 25,8 C 35,6 C 22,2 C 46 % 1014,0 hPa 0,0 l/m 2 min 0 min 814 W/m 9,0 km/h (2 Bft) 93,62 %
02.07.2018 11:52 25,9 C 35,6 C 22,2 C 45 % 1013,9 hPa 0,0 l/m 2 min 0 min 817 W/m 11,3 km/h (2 Bft) 97,87 %
02.07.2018 11:54 26,0 C 35,0 C 22,2 C 45 % 1013,9 hPa 0,0 l/m 2 min 0 min 820 W/m 9,0 km/h (2 Bft) 97,87 %
02.07.2018 11:56 26,1 C 35,6 C 22,2 C 47 % 1013,9 hPa 0,0 l/m 2 min 0 min 822 W/m 11,3 km/h (2 Bft) 95,65 %
02.07.2018 11:58 26,2 C 34,4 C 22,2 C 44 % 1013,9 hPa 0,0 l/m 2 min 0 min 827 W/m 11,3 km/h (2 Bft) 95,74 %
02.07.2018 12:00 26,3 C 35,0 C 22,2 C 45 % 1013,9 hPa 0,0 l/m 2 min 0 min 831 W/m 9,0 km/h (2 Bft) 95,74 %
02.07.2018 12:02 26,4 C 35,0 C 22,2 C 45 % 1013,9 hPa 0,0 l/m 2 min 0 min 833 W/m 9,0 km/h (2 Bft) 97,87 %
02.07.2018 12:04 26,6 C 35,0 C 22,2 C 45 % 1013,9 hPa 0,0 l/m 2 min 0 min 837 W/m 9,0 km/h (2 Bft) 95,74 %
02.07.2018 12:08 26,8 C 35,6 C 22,8 C 44 % 1014,0 hPa 0,0 l/m 4 min 0 min 840 W/m 11,3 km/h (2 Bft) 96,47 %
02.07.2018 12:10 26,8 C 35,6 C 22,8 C 43 % 1013,9 hPa 0,0 l/m 2 min 0 min 845 W/m 9,0 km/h (2 Bft) 100,00 %
02.07.2018 12:12 26,9 C 35,6 C 22,8 C 43 % 1013,8 hPa 0,0 l/m 2 min 0 min 848 W/m 9,0 km/h (2 Bft) 100,00 %
02.07.2018 12:14 27,0 C 35,0 C 22,8 C 43 % 1013,8 hPa 0,0 l/m 2 min 0 min 850 W/m 9,0 km/h (2 Bft) 97,87 %
02.07.2018 12:16 27,0 C 34,4 C 22,8 C 41 % 1013,8 hPa 0,0 l/m 2 min 0 min 854 W/m 9,0 km/h (2 Bft) 94,92 %
02.07.2018 12:18 27,1 C 35,6 C 22,8 C 42 % 1013,8 hPa 0,0 l/m 2 min 0 min 858 W/m 11,3 km/h (2 Bft) 100,00 %
02.07.2018 12:20 27,1 C 35,0 C 22,8 C 42 % 1013,7 hPa 0,0 l/m 2 min 0 min 860 W/m 11,3 km/h (2 Bft) 96,55 %
02.07.2018 12:22 27,2 C 35,6 C 22,8 C 44 % 1013,8 hPa 0,0 l/m 2 min 0 min 860 W/m 6,8 km/h (2 Bft) 97,87 %
02.07.2018 12:24 27,2 C 35,0 C 23,3 C 42 % 1013,7 hPa 0,0 l/m 2 min 0 min 863 W/m 9,0 km/h (2 Bft) 97,14 %
02.07.2018 12:26 27,3 C 36,1 C 23,3 C 44 % 1013,7 hPa 0,0 l/m 2 min 0 min 867 W/m 9,0 km/h (2 Bft) 97,87 %
02.07.2018 12:28 27,4 C 36,7 C 23,3 C 42 % 1013,7 hPa 0,0 l/m 2 min 0 min 867 W/m 9,0 km/h (2 Bft) 98,31 %
02.07.2018 12:30 27,4 C 33,9 C 23,3 C 42 % 1013,6 hPa 0,0 l/m 2 min 0 min 784 W/m 13,5 km/h (3 Bft) 97,14 %
02.07.2018 12:32 27,5 C 35,6 C 23,3 C 42 % 1013,7 hPa 0,0 l/m 2 min 0 min 788 W/m 6,8 km/h (2 Bft) 98,28 %
02.07.2018 12:34 27,6 C 35,6 C 23,3 C 41 % 1013,6 hPa 0,0 l/m 2 min 0 min 874 W/m 13,5 km/h (3 Bft) 97,14 %
02.07.2018 12:36 27,6 C 35,0 C 23,3 C 40 % 1013,6 hPa 0,0 l/m 2 min 0 min 876 W/m 11,3 km/h (2 Bft) 97,87 %
02.07.2018 12:38 27,6 C 35,6 C 23,3 C 41 % 1013,6 hPa 0,0 l/m 2 min 0 min 880 W/m 9,0 km/h (2 Bft) 97,87 %
02.07.2018 12:40 27,6 C 35,6 C 23,3 C 41 % 1013,6 hPa 0,0 l/m 2 min 0 min 881 W/m 13,5 km/h (3 Bft) 97,87 %
02.07.2018 12:42 27,7 C 36,1 C 23,3 C 41 % 1013,6 hPa 0,0 l/m 2 min 0 min 885 W/m 13,5 km/h (3 Bft) 97,87 %
02.07.2018 12:44 27,7 C 36,7 C 23,3 C 41 % 1013,5 hPa 0,0 l/m 2 min 0 min 885 W/m 9,0 km/h (2 Bft) 96,55 %
02.07.2018 12:46 27,7 C 36,1 C 23,3 C 42 % 1013,5 hPa 0,0 l/m 2 min 0 min 889 W/m 11,3 km/h (2 Bft) 97,14 %
02.07.2018 12:48 27,7 C 36,1 C 23,9 C 41 % 1013,5 hPa 0,0 l/m 2 min 0 min 890 W/m 13,5 km/h (3 Bft) 97,87 %
02.07.2018 12:50 27,8 C 36,7 C 23,9 C 41 % 1013,6 hPa 0,0 l/m 2 min 0 min 893 W/m 11,3 km/h (2 Bft) 96,61 %
02.07.2018 12:52 27,8 C 36,1 C 23,9 C 41 % 1013,5 hPa 0,0 l/m 2 min 0 min 894 W/m 9,0 km/h (2 Bft) 97,87 %
02.07.2018 12:54 27,8 C 35,6 C 23,9 C 41 % 1013,5 hPa 0,0 l/m 2 min 0 min 897 W/m 11,3 km/h (2 Bft) 100,00 %
02.07.2018 12:56 27,8 C 36,1 C 23,9 C 40 % 1013,6 hPa 0,0 l/m 2 min 0 min 899 W/m 9,0 km/h (2 Bft) 95,65 %
02.07.2018 12:58 27,8 C 35,0 C 23,9 C 40 % 1013,5 hPa 0,0 l/m 2 min 0 min 898 W/m 15,8 km/h (3 Bft) 97,87 %
02.07.2018 13:00 27,8 C 36,1 C 23,9 C 40 % 1013,5 hPa 0,0 l/m 2 min 0 min 902 W/m 9,0 km/h (2 Bft) 97,87 %
02.07.2018 13:02 27,8 C 35,0 C 24,4 C 40 % 1013,5 hPa 0,0 l/m 2 min 0 min 904 W/m 6,8 km/h (2 Bft) 98,00 %
02.07.2018 13:04 27,8 C 35,0 C 24,4 C 40 % 1013,5 hPa 0,0 l/m 2 min 0 min 907 W/m 11,3 km/h (2 Bft) 97,87 %
02.07.2018 13:06 27,8 C 35,0 C 23,9 C 39 % 1013,5 hPa 0,0 l/m 2 min 0 min 908 W/m 9,0 km/h (2 Bft) 95,74 %
02.07.2018 13:08 27,8 C 35,0 C 24,4 C 39 % 1013,5 hPa 0,0 l/m 2 min 0 min 910 W/m 13,5 km/h (3 Bft) 97,83 %
02.07.2018 13:10 27,8 C 35,6 C 24,4 C 40 % 1013,5 hPa 0,0 l/m 2 min 0 min 913 W/m 9,0 km/h (2 Bft) 100,00 %
02.07.2018 13:12 27,8 C 36,1 C 24,4 C 40 % 1013,6 hPa 0,0 l/m 2 min 0 min 908 W/m 9,0 km/h (2 Bft) 100,00 %
02.07.2018 13:14 27,8 C 35,0 C 24,4 C 38 % 1013,6 hPa 0,0 l/m 2 min 0 min 911 W/m 13,5 km/h (3 Bft) 100,00 %
02.07.2018 13:16 27,8 C 33,3 C 24,4 C 37 % 1013,5 hPa 0,0 l/m 2 min 0 min 911 W/m 13,5 km/h (3 Bft) 100,00 %
02.07.2018 13:18 27,7 C 33,9 C 24,4 C 39 % 1013,5 hPa 0,0 l/m 2 min 0 min 911 W/m 13,5 km/h (3 Bft) 97,87 %
02.07.2018 13:20 27,7 C 34,4 C 24,4 C 39 % 1013,4 hPa 0,0 l/m 2 min 0 min 915 W/m 11,3 km/h (2 Bft) 100,00 %
02.07.2018 13:22 27,6 C 35,0 C 24,4 C 39 % 1013,5 hPa 0,0 l/m 2 min 0 min 916 W/m 13,5 km/h (3 Bft) 100,00 %
02.07.2018 13:24 27,6 C 35,6 C 24,4 C 39 % 1013,5 hPa 0,0 l/m 2 min 0 min 915 W/m 9,0 km/h (2 Bft) 100,00 %
02.07.2018 13:26 27,6 C 35,6 C 24,4 C 39 % 1013,5 hPa 0,0 l/m 2 min 0 min 918 W/m 11,3 km/h (2 Bft) 100,00 %
02.07.2018 13:28 27,6 C 35,6 C 24,4 C 40 % 1013,5 hPa 0,0 l/m 2 min 0 min 921 W/m 9,0 km/h (2 Bft) 100,00 %
02.07.2018 13:30 27,5 C 36,1 C 24,4 C 39 % 1013,4 hPa 0,0 l/m 2 min 0 min 924 W/m 9,0 km/h (2 Bft) 100,00 %
02.07.2018 13:32 27,5 C 36,1 C 24,4 C 39 % 1013,4 hPa 0,0 l/m 2 min 0 min 923 W/m 6,8 km/h (2 Bft) 100,00 %
02.07.2018 13:34 27,5 C 35,6 C 24,4 C 39 % 1013,4 hPa 0,0 l/m 2 min 0 min 923 W/m 9,0 km/h (2 Bft) 100,00 %
02.07.2018 13:36 27,5 C 35,0 C 24,4 C 40 % 1013,4 hPa 0,0 l/m 2 min 0 min 925 W/m 6,8 km/h (2 Bft) 100,00 %
02.07.2018 13:38 27,4 C 32,8 C 24,4 C 39 % 1013,4 hPa 0,0 l/m 2 min 0 min 925 W/m 11,3 km/h (2 Bft) 100,00 %
02.07.2018 13:40 27,4 C 31,1 C 24,4 C 40 % 1013,5 hPa 0,0 l/m 2 min 0 min 923 W/m 13,5 km/h (3 Bft) 97,87 %
02.07.2018 13:42 27,4 C 30,0 C 24,4 C 40 % 1013,5 hPa 0,0 l/m 2 min 0 min 926 W/m 9,0 km/h (2 Bft) 97,83 %
02.07.2018 13:44 27,4 C 28,3 C 24,4 C 39 % 1013,4 hPa 0,0 l/m 2 min 0 min 929 W/m 11,3 km/h (2 Bft) 100,00 %
02.07.2018 13:46 27,4 C 27,8 C 24,4 C 40 % 1013,3 hPa 0,0 l/m 2 min 0 min 931 W/m 9,0 km/h (2 Bft) 97,87 %
02.07.2018 13:48 27,4 C 27,2 C 24,4 C 39 % 1013,3 hPa 0,0 l/m 2 min 0 min 927 W/m 18,0 km/h (3 Bft) 100,00 %
02.07.2018 13:50 27,4 C 26,7 C 24,4 C 38 % 1013,4 hPa 0,0 l/m 2 min 0 min 925 W/m 9,0 km/h (2 Bft) 97,87 %
02.07.2018 13:52 27,3 C 26,7 C 25,0 C 40 % 1013,4 hPa 0,0 l/m 2 min 0 min 926 W/m 13,5 km/h (3 Bft) 97,87 %
02.07.2018 13:54 27,3 C 26,7 C 25,0 C 39 % 1013,4 hPa 0,0 l/m 2 min 0 min 928 W/m 18,0 km/h (3 Bft) 97,87 %
02.07.2018 13:56 27,3 C 26,7 C 24,4 C 38 % 1013,4 hPa 0,0 l/m 2 min 0 min 928 W/m 11,3 km/h (2 Bft) 95,65 %
02.07.2018 13:58 27,3 C 26,7 C 24,4 C 38 % 1013,3 hPa 0,0 l/m 2 min 0 min 926 W/m 11,3 km/h (2 Bft) 97,87 %
02.07.2018 14:00 27,2 C 26,7 C 25,0 C 39 % 1013,3 hPa 0,0 l/m 2 min 0 min 928 W/m 11,3 km/h (2 Bft) 95,74 %
02.07.2018 14:02 27,2 C 27,2 C 25,0 C 41 % 1013,3 hPa 0,0 l/m 2 min 0 min 926 W/m 9,0 km/h (2 Bft) 95,74 %
02.07.2018 14:04 27,2 C 27,2 C 25,0 C 40 % 1013,3 hPa 0,0 l/m 2 min 0 min 927 W/m 13,5 km/h (3 Bft) 91,49 %
02.07.2018 14:06 27,2 C 27,2 C 25,0 C 41 % 1013,3 hPa 0,0 l/m 2 min 0 min 926 W/m 6,8 km/h (2 Bft) 95,65 %
02.07.2018 14:08 27,2 C 27,2 C 25,0 C 40 % 1013,3 hPa 0,0 l/m 2 min 0 min 926 W/m 11,3 km/h (2 Bft) 93,62 %
02.07.2018 14:10 27,2 C 27,2 C 25,0 C 41 % 1013,4 hPa 0,0 l/m 2 min 0 min 927 W/m 11,3 km/h (2 Bft) 95,74 %
02.07.2018 14:12 27,2 C 27,2 C 25,0 C 40 % 1013,3 hPa 0,0 l/m 2 min 0 min 928 W/m 11,3 km/h (2 Bft) 93,62 %
02.07.2018 14:14 27,2 C 27,2 C 25,0 C 40 % 1013,3 hPa 0,0 l/m 2 min 0 min 928 W/m 9,0 km/h (2 Bft) 95,74 %
02.07.2018 14:16 27,2 C 27,2 C 24,4 C 40 % 1013,3 hPa 0,0 l/m 2 min 0 min 928 W/m 6,8 km/h (2 Bft) 95,74 %
02.07.2018 14:18 27,2 C 27,2 C 24,4 C 40 % 1013,2 hPa 0,0 l/m 2 min 0 min 927 W/m 9,0 km/h (2 Bft) 95,65 %
02.07.2018 14:20 27,2 C 27,2 C 25,0 C 40 % 1013,3 hPa 0,0 l/m 2 min 0 min 926 W/m 11,3 km/h (2 Bft) 93,62 %
02.07.2018 14:22 27,2 C 27,2 C 24,4 C 40 % 1013,4 hPa 0,0 l/m 2 min 0 min 928 W/m 13,5 km/h (3 Bft) 95,74 %
02.07.2018 14:24 27,2 C 27,2 C 24,4 C 40 % 1013,3 hPa 0,0 l/m 2 min 0 min 927 W/m 11,3 km/h (2 Bft) 95,74 %
02.07.2018 14:26 27,2 C 27,2 C 25,0 C 41 % 1013,4 hPa 0,0 l/m 2 min 0 min 926 W/m 11,3 km/h (2 Bft) 95,74 %
02.07.2018 14:28 27,2 C 27,2 C 25,0 C 41 % 1013,4 hPa 0,0 l/m 2 min 0 min 925 W/m 6,8 km/h (2 Bft) 95,74 %
02.07.2018 14:30 27,2 C 27,2 C 24,4 C 39 % 1013,4 hPa 0,0 l/m 2 min 0 min 923 W/m 13,5 km/h (3 Bft) 93,48 %
02.07.2018 14:32 27,2 C 26,7 C 25,0 C 39 % 1013,3 hPa 0,0 l/m 2 min 0 min 925 W/m 13,5 km/h (3 Bft) 95,74 %
02.07.2018 14:34 27,2 C 26,7 C 25,0 C 40 % 1013,3 hPa 0,0 l/m 2 min 0 min 925 W/m 13,5 km/h (3 Bft) 95,74 %
02.07.2018 14:36 27,2 C 27,2 C 25,0 C 41 % 1013,3 hPa 0,0 l/m 2 min 0 min 923 W/m 9,0 km/h (2 Bft) 93,62 %
02.07.2018 14:38 27,2 C 27,8 C 25,0 C 41 % 1013,3 hPa 0,0 l/m 2 min 0 min 920 W/m 9,0 km/h (2 Bft) 95,74 %
02.07.2018 14:40 27,2 C 27,2 C 25,0 C 40 % 1013,2 hPa 0,0 l/m 2 min 0 min 920 W/m 9,0 km/h (2 Bft) 93,62 %
02.07.2018 14:42 27,3 C 27,2 C 25,0 C 40 % 1013,3 hPa 0,0 l/m 2 min 0 min 919 W/m 13,5 km/h (3 Bft) 95,65 %
02.07.2018 14:44 27,3 C 27,2 C 25,0 C 40 % 1013,2 hPa 0,0 l/m 2 min 0 min 919 W/m 13,5 km/h (3 Bft) 97,87 %
02.07.2018 14:46 27,3 C 27,2 C 25,0 C 40 % 1013,3 hPa 0,0 l/m 2 min 0 min 918 W/m 11,3 km/h (2 Bft) 97,87 %
02.07.2018 14:48 27,3 C 27,8 C 25,0 C 41 % 1013,2 hPa 0,0 l/m 2 min 0 min 918 W/m 6,8 km/h (2 Bft) 97,87 %
02.07.2018 14:50 27,4 C 27,8 C 25,0 C 40 % 1013,2 hPa 0,0 l/m 2 min 0 min 914 W/m 11,3 km/h (2 Bft) 100,00 %
02.07.2018 14:52 27,4 C 27,8 C 25,0 C 42 % 1013,2 hPa 0,0 l/m 2 min 0 min 914 W/m 6,8 km/h (2 Bft) 100,00 %
02.07.2018 14:54 27,4 C 27,8 C 25,0 C 41 % 1013,2 hPa 0,0 l/m 2 min 0 min 911 W/m 6,8 km/h (2 Bft) 97,87 %
02.07.2018 14:56 27,5 C 27,8 C 25,0 C 40 % 1013,3 hPa 0,0 l/m 2 min 0 min 912 W/m 15,8 km/h (3 Bft) 97,87 %
02.07.2018 14:58 27,5 C 27,8 C 25,0 C 40 % 1013,3 hPa 0,0 l/m 2 min 0 min 909 W/m 13,5 km/h (3 Bft) 97,87 %
02.07.2018 15:00 27,6 C 27,8 C 25,0 C 40 % 1013,3 hPa 0,0 l/m 2 min 0 min 906 W/m 11,3 km/h (2 Bft) 100,00 %
02.07.2018 15:02 27,6 C 27,8 C 25,0 C 39 % 1013,3 hPa 0,0 l/m 2 min 0 min 906 W/m 9,0 km/h (2 Bft) 97,87 %
02.07.2018 15:04 27,6 C 27,8 C 25,0 C 40 % 1013,2 hPa 0,0 l/m 2 min 0 min 906 W/m 9,0 km/h (2 Bft) 97,83 %
02.07.2018 15:06 27,7 C 27,8 C 25,0 C 41 % 1013,2 hPa 0,0 l/m 2 min 0 min 906 W/m 11,3 km/h (2 Bft) 100,00 %
02.07.2018 15:08 27,7 C 27,8 C 25,0 C 39 % 1013,2 hPa 0,0 l/m 2 min 0 min 902 W/m 9,0 km/h (2 Bft) 97,87 %
02.07.2018 15:10 27,7 C 27,2 C 25,0 C 37 % 1013,2 hPa 0,0 l/m 2 min 0 min 901 W/m 9,0 km/h (2 Bft) 97,87 %
02.07.2018 15:12 27,8 C 27,2 C 25,0 C 39 % 1013,2 hPa 0,0 l/m 2 min 0 min 900 W/m 4,5 km/h (1 Bft) 100,00 %
02.07.2018 15:14 27,8 C 27,8 C 25,0 C 38 % 1013,1 hPa 0,0 l/m 2 min 0 min 899 W/m 11,3 km/h (2 Bft) 100,00 %
02.07.2018 15:16 27,8 C 27,8 C 25,6 C 40 % 1013,2 hPa 0,0 l/m 2 min 0 min 897 W/m 9,0 km/h (2 Bft) 97,83 %
02.07.2018 15:18 27,8 C 27,8 C 25,6 C 38 % 1013,2 hPa 0,0 l/m 2 min 0 min 894 W/m 15,8 km/h (3 Bft) 97,87 %
02.07.2018 15:20 27,9 C 27,8 C 25,0 C 38 % 1013,2 hPa 0,0 l/m 2 min 0 min 893 W/m 13,5 km/h (3 Bft) 97,87 %
02.07.2018 15:22 27,9 C 27,2 C 25,0 C 36 % 1013,1 hPa 0,0 l/m 2 min 0 min 890 W/m 13,5 km/h (3 Bft) 100,00 %
02.07.2018 15:24 27,9 C 27,2 C 25,6 C 37 % 1013,1 hPa 0,0 l/m 2 min 0 min 888 W/m 9,0 km/h (2 Bft) 97,87 %
02.07.2018 15:26 27,9 C 27,2 C 25,0 C 36 % 1013,1 hPa 0,0 l/m 2 min 0 min 887 W/m 18,0 km/h (3 Bft) 100,00 %
02.07.2018 15:28 27,9 C 27,8 C 25,0 C 38 % 1013,1 hPa 0,0 l/m 2 min 0 min 886 W/m 9,0 km/h (2 Bft) 97,83 %
02.07.2018 15:30 27,9 C 27,8 C 25,6 C 38 % 1013,1 hPa 0,0 l/m 2 min 0 min 884 W/m 11,3 km/h (2 Bft) 97,87 %
02.07.2018 15:32 27,9 C 28,3 C 25,6 C 39 % 1013,1 hPa 0,0 l/m 2 min 0 min 882 W/m 6,8 km/h (2 Bft) 100,00 %
02.07.2018 15:34 28,0 C 28,3 C 25,6 C 37 % 1013,1 hPa 0,0 l/m 2 min 0 min 877 W/m 6,8 km/h (2 Bft) 100,00 %
02.07.2018 15:36 28,0 C 28,3 C 25,6 C 37 % 1013,2 hPa 0,0 l/m 2 min 0 min 876 W/m 11,3 km/h (2 Bft) 100,00 %
02.07.2018 15:38 28,1 C 28,3 C 25,6 C 36 % 1013,1 hPa 0,0 l/m 2 min 0 min 876 W/m 15,8 km/h (3 Bft) 95,74 %
02.07.2018 15:40 28,1 C 28,9 C 25,6 C 37 % 1013,2 hPa 0,0 l/m 2 min 0 min 872 W/m 11,3 km/h (2 Bft) 95,65 %
02.07.2018 15:42 28,1 C 28,9 C 25,6 C 38 % 1013,2 hPa 0,0 l/m 2 min 0 min 869 W/m 11,3 km/h (2 Bft) 95,74 %
02.07.2018 15:44 28,2 C 29,4 C 25,6 C 38 % 1013,2 hPa 0,0 l/m 2 min 0 min 869 W/m 11,3 km/h (2 Bft) 95,74 %
02.07.2018 15:46 28,2 C 30,0 C 25,6 C 38 % 1013,2 hPa 0,0 l/m 2 min 0 min 864 W/m 9,0 km/h (2 Bft) 97,87 %
02.07.2018 15:48 28,3 C 31,1 C 25,6 C 38 % 1013,2 hPa 0,0 l/m 2 min 0 min 860 W/m 6,8 km/h (2 Bft) 97,87 %
02.07.2018 15:50 28,3 C 32,8 C 25,6 C 38 % 1013,1 hPa 0,0 l/m 2 min 0 min 857 W/m 4,5 km/h (1 Bft) 97,87 %
02.07.2018 15:52 28,3 C 32,8 C 25,6 C 38 % 1013,2 hPa 0,0 l/m 2 min 0 min 857 W/m 13,5 km/h (3 Bft) 97,83 %
02.07.2018 15:54 28,4 C 33,9 C 25,6 C 38 % 1013,2 hPa 0,0 l/m 2 min 0 min 852 W/m 9,0 km/h (2 Bft) 97,87 %
02.07.2018 15:56 28,4 C 33,9 C 25,6 C 38 % 1013,1 hPa 0,0 l/m 2 min 0 min 850 W/m 9,0 km/h (2 Bft) 97,87 %
02.07.2018 15:58 28,5 C 33,9 C 25,6 C 37 % 1013,1 hPa 0,0 l/m 2 min 0 min 846 W/m 9,0 km/h (2 Bft) 97,87 %
02.07.2018 16:00 28,6 C 33,9 C 25,6 C 37 % 1013,1 hPa 0,0 l/m 2 min 0 min 845 W/m 11,3 km/h (2 Bft) 97,87 %
02.07.2018 16:02 28,6 C 32,8 C 25,6 C 36 % 1013,1 hPa 0,0 l/m 2 min 0 min 840 W/m 11,3 km/h (2 Bft) 95,74 %
02.07.2018 16:04 28,6 C 33,3 C 25,6 C 37 % 1013,1 hPa 0,0 l/m 2 min 0 min 840 W/m 9,0 km/h (2 Bft) 97,83 %
02.07.2018 16:06 28,6 C 33,9 C 25,6 C 38 % 1013,1 hPa 0,0 l/m 2 min 0 min 836 W/m 11,3 km/h (2 Bft) 97,87 %
02.07.2018 16:08 28,6 C 33,9 C 25,6 C 37 % 1013,1 hPa 0,0 l/m 2 min 0 min 835 W/m 11,3 km/h (2 Bft) 97,87 %
02.07.2018 16:10 28,7 C 33,9 C 25,6 C 37 % 1013,1 hPa 0,0 l/m 2 min 0 min 830 W/m 9,0 km/h (2 Bft) 95,74 %
02.07.2018 16:12 28,7 C 33,9 C 25,6 C 37 % 1013,0 hPa 0,0 l/m 2 min 0 min 827 W/m 15,8 km/h (3 Bft) 97,87 %
02.07.2018 16:14 28,7 C 33,9 C 25,6 C 38 % 1013,0 hPa 0,0 l/m 2 min 0 min 824 W/m 11,3 km/h (2 Bft) 97,83 %
02.07.2018 16:16 28,7 C 33,9 C 25,6 C 37 % 1013,0 hPa 0,0 l/m 2 min 0 min 821 W/m 9,0 km/h (2 Bft) 100,00 %
02.07.2018 16:18 28,8 C 33,9 C 25,6 C 36 % 1012,9 hPa 0,0 l/m 2 min 0 min 816 W/m 9,0 km/h (2 Bft) 97,87 %
02.07.2018 16:20 28,8 C 33,3 C 25,6 C 37 % 1013,0 hPa 0,0 l/m 2 min 0 min 813 W/m 6,8 km/h (2 Bft) 97,87 %
02.07.2018 16:22 28,9 C 33,3 C 25,6 C 38 % 1013,0 hPa 0,0 l/m 2 min 0 min 812 W/m 6,8 km/h (2 Bft) 93,62 %
02.07.2018 16:24 28,9 C 32,8 C 25,6 C 36 % 1012,9 hPa 0,0 l/m 2 min 0 min 807 W/m 11,3 km/h (2 Bft) 97,87 %
02.07.2018 16:26 28,9 C 32,2 C 25,6 C 36 % 1012,9 hPa 0,0 l/m 2 min 0 min 804 W/m 11,3 km/h (2 Bft) 97,83 %
02.07.2018 16:28 28,9 C 32,2 C 26,1 C 36 % 1012,9 hPa 0,0 l/m 2 min 0 min 800 W/m 11,3 km/h (2 Bft) 97,87 %
02.07.2018 16:30 29,0 C 32,2 C 25,6 C 36 % 1012,9 hPa 0,0 l/m 2 min 0 min 797 W/m 11,3 km/h (2 Bft) 97,87 %
02.07.2018 16:32 29,1 C 32,8 C 26,1 C 37 % 1012,8 hPa 0,0 l/m 2 min 0 min 795 W/m 11,3 km/h (2 Bft) 100,00 %
02.07.2018 16:34 29,1 C 32,8 C 26,1 C 37 % 1012,8 hPa 0,0 l/m 2 min 0 min 791 W/m 6,8 km/h (2 Bft) 100,00 %
02.07.2018 16:36 29,1 C 32,8 C 25,6 C 37 % 1012,8 hPa 0,0 l/m 2 min 0 min 786 W/m 6,8 km/h (2 Bft) 100,00 %
02.07.2018 16:38 29,1 C 32,8 C 26,1 C 37 % 1012,9 hPa 0,0 l/m 2 min 0 min 785 W/m 11,3 km/h (2 Bft) 100,00 %
02.07.2018 16:40 29,2 C 32,8 C 25,6 C 35 % 1012,8 hPa 0,0 l/m 2 min 0 min 781 W/m 9,0 km/h (2 Bft) 97,87 %
02.07.2018 16:42 29,2 C 32,2 C 25,6 C 36 % 1012,8 hPa 0,0 l/m 2 min 0 min 778 W/m 6,8 km/h (2 Bft) 100,00 %
02.07.2018 16:44 29,2 C 32,8 C 25,6 C 36 % 1012,8 hPa 0,0 l/m 2 min 0 min 773 W/m 9,0 km/h (2 Bft) 100,00 %
02.07.2018 16:46 29,2 C 32,8 C 25,6 C 36 % 1012,7 hPa 0,0 l/m 2 min 0 min 769 W/m 11,3 km/h (2 Bft) 97,87 %
02.07.2018 16:48 29,2 C 31,7 C 25,6 C 35 % 1012,7 hPa 0,0 l/m 2 min 0 min 764 W/m 9,0 km/h (2 Bft) 95,74 %
02.07.2018 16:50 29,2 C 31,7 C 25,6 C 36 % 1012,7 hPa 0,0 l/m 2 min 0 min 761 W/m 11,3 km/h (2 Bft) 97,83 %
02.07.2018 16:52 29,2 C 31,1 C 25,6 C 35 % 1012,7 hPa 0,0 l/m 2 min 0 min 758 W/m 9,0 km/h (2 Bft) 97,92 %
02.07.2018 16:54 29,3 C 31,7 C 26,1 C 37 % 1012,7 hPa 0,0 l/m 2 min 0 min 754 W/m 9,0 km/h (2 Bft) 97,87 %
02.07.2018 16:56 29,3 C 31,7 C 26,1 C 35 % 1012,6 hPa 0,0 l/m 2 min 0 min 749 W/m 9,0 km/h (2 Bft) 100,00 %
02.07.2018 16:58 29,3 C 31,7 C 26,1 C 36 % 1012,7 hPa 0,0 l/m 2 min 0 min 745 W/m 9,0 km/h (2 Bft) 97,87 %
02.07.2018 17:00 29,3 C 31,1 C 26,1 C 34 % 1012,6 hPa 0,0 l/m 2 min 0 min 741 W/m 9,0 km/h (2 Bft) 97,87 %
02.07.2018 17:02 29,3 C 31,1 C 26,1 C 35 % 1012,7 hPa 0,0 l/m 2 min 0 min 736 W/m 11,3 km/h (2 Bft) 97,83 %
02.07.2018 17:04 29,3 C 31,1 C 26,1 C 35 % 1012,6 hPa 0,0 l/m 2 min 0 min 731 W/m 11,3 km/h (2 Bft) 95,74 %
02.07.2018 17:06 29,3 C 31,1 C 26,1 C 36 % 1012,7 hPa 0,0 l/m 2 min 0 min 726 W/m 13,5 km/h (3 Bft) 97,87 %
02.07.2018 17:08 29,3 C 31,1 C 26,1 C 36 % 1012,7 hPa 0,0 l/m 2 min 0 min 723 W/m 11,3 km/h (2 Bft) 95,74 %
02.07.2018 17:10 29,3 C 31,1 C 26,1 C 35 % 1012,7 hPa 0,0 l/m 2 min 0 min 721 W/m 9,0 km/h (2 Bft) 97,87 %
02.07.2018 17:12 29,3 C 31,1 C 26,1 C 36 % 1012,6 hPa 0,0 l/m 2 min 0 min 716 W/m 6,8 km/h (2 Bft) 95,65 %
02.07.2018 17:14 29,3 C 31,1 C 26,1 C 36 % 1012,7 hPa 0,0 l/m 2 min 0 min 712 W/m 6,8 km/h (2 Bft) 97,87 %
02.07.2018 17:16 29,3 C 31,1 C 26,1 C 36 % 1012,7 hPa 0,0 l/m 2 min 0 min 707 W/m 11,3 km/h (2 Bft) 97,87 %
02.07.2018 17:18 29,2 C 30,6 C 26,1 C 35 % 1012,6 hPa 0,0 l/m 2 min 0 min 704 W/m 13,5 km/h (3 Bft) 97,87 %
02.07.2018 17:20 29,3 C 30,6 C 26,1 C 35 % 1012,6 hPa 0,0 l/m 2 min 0 min 699 W/m 15,8 km/h (3 Bft) 97,87 %
02.07.2018 17:22 29,2 C 30,6 C 26,1 C 37 % 1012,6 hPa 0,0 l/m 2 min 0 min 694 W/m 6,8 km/h (2 Bft) 96,00 %
02.07.2018 17:24 29,3 C 31,1 C 26,1 C 38 % 1012,6 hPa 0,0 l/m 2 min 0 min 692 W/m 6,8 km/h (2 Bft) 97,83 %
02.07.2018 17:26 29,3 C 30,6 C 26,7 C 35 % 1012,6 hPa 0,0 l/m 2 min 0 min 687 W/m 6,8 km/h (2 Bft) 97,87 %
02.07.2018 17:28 29,3 C 31,1 C 26,7 C 37 % 1012,6 hPa 0,0 l/m 2 min 0 min 682 W/m 4,5 km/h (1 Bft) 97,87 %
02.07.2018 17:30 29,3 C 31,1 C 26,7 C 37 % 1012,7 hPa 0,0 l/m 2 min 0 min 678 W/m 6,8 km/h (2 Bft) 97,87 %
02.07.2018 17:32 29,3 C 30,6 C 26,1 C 36 % 1012,7 hPa 0,0 l/m 2 min 0 min 671 W/m 15,8 km/h (3 Bft) 97,87 %
02.07.2018 17:34 29,3 C 30,6 C 26,7 C 36 % 1012,7 hPa 0,0 l/m 2 min 0 min 668 W/m 9,0 km/h (2 Bft) 95,74 %
02.07.2018 17:36 29,3 C 30,6 C 26,7 C 37 % 1012,7 hPa 0,0 l/m 2 min 0 min 663 W/m 9,0 km/h (2 Bft) 95,65 %
02.07.2018 17:38 29,3 C 30,6 C 26,7 C 37 % 1012,7 hPa 0,0 l/m 2 min 0 min 659 W/m 6,8 km/h (2 Bft) 95,74 %
02.07.2018 17:40 29,3 C 30,6 C 26,7 C 37 % 1012,7 hPa 0,0 l/m 2 min 0 min 654 W/m 6,8 km/h (2 Bft) 97,87 %
02.07.2018 17:42 29,3 C 30,6 C 26,7 C 37 % 1012,7 hPa 0,0 l/m 2 min 0 min 649 W/m 6,8 km/h (2 Bft) 97,87 %
02.07.2018 17:44 29,3 C 30,6 C 26,7 C 37 % 1012,7 hPa 0,0 l/m 2 min 0 min 644 W/m 9,0 km/h (2 Bft) 97,87 %
02.07.2018 17:46 29,3 C 30,0 C 26,7 C 36 % 1012,7 hPa 0,0 l/m 2 min 0 min 640 W/m 9,0 km/h (2 Bft) 97,87 %
02.07.2018 17:48 29,3 C 30,0 C 26,7 C 35 % 1012,7 hPa 0,0 l/m 2 min 0 min 636 W/m 9,0 km/h (2 Bft) 97,83 %
02.07.2018 17:50 29,3 C 29,4 C 26,7 C 34 % 1012,7 hPa 0,0 l/m 2 min 0 min 630 W/m 15,8 km/h (3 Bft) 95,74 %
02.07.2018 17:52 29,3 C 28,9 C 26,1 C 34 % 1012,7 hPa 0,0 l/m 2 min 0 min 624 W/m 13,5 km/h (3 Bft) 97,87 %
02.07.2018 17:54 29,3 C 28,9 C 26,1 C 35 % 1012,7 hPa 0,0 l/m 2 min 0 min 621 W/m 6,8 km/h (2 Bft) 100,00 %
02.07.2018 17:56 29,3 C 28,9 C 26,7 C 36 % 1012,7 hPa 0,0 l/m 2 min 0 min 615 W/m 6,8 km/h (2 Bft) 97,87 %
02.07.2018 17:58 29,2 C 28,9 C 26,7 C 36 % 1012,7 hPa 0,0 l/m 2 min 0 min 608 W/m 13,5 km/h (3 Bft) 97,83 %
02.07.2018 18:00 29,2 C 28,9 C 26,7 C 36 % 1012,7 hPa 0,0 l/m 2 min 0 min 603 W/m 9,0 km/h (2 Bft) 97,87 %
02.07.2018 18:02 29,2 C 28,9 C 26,7 C 36 % 1012,8 hPa 0,0 l/m 2 min 0 min 597 W/m 6,8 km/h (2 Bft) 97,87 %
02.07.2018 18:04 29,2 C 28,9 C 26,7 C 35 % 1012,7 hPa 0,0 l/m 2 min 0 min 593 W/m 9,0 km/h (2 Bft) 97,87 %
02.07.2018 18:08 29,1 C 28,3 C 26,7 C 35 % 1012,7 hPa 0,0 l/m 4 min 0 min 586 W/m 11,3 km/h (2 Bft) 93,90 %
02.07.2018 18:10 29,1 C 28,3 C 26,7 C 35 % 1012,7 hPa 0,0 l/m 2 min 0 min 578 W/m 6,8 km/h (2 Bft) 97,87 %
02.07.2018 18:12 29,1 C 28,3 C 26,1 C 35 % 1012,7 hPa 0,0 l/m 2 min 0 min 574 W/m 6,8 km/h (2 Bft) 96,61 %
02.07.2018 18:14 29,1 C 28,3 C 26,7 C 35 % 1012,8 hPa 0,0 l/m 2 min 0 min 569 W/m 11,3 km/h (2 Bft) 94,29 %
02.07.2018 18:16 29,0 C 28,3 C 26,1 C 34 % 1012,7 hPa 0,0 l/m 2 min 0 min 564 W/m 11,3 km/h (2 Bft) 93,62 %
02.07.2018 18:18 28,9 C 28,3 C 26,1 C 34 % 1012,7 hPa 0,0 l/m 2 min 0 min 559 W/m 9,0 km/h (2 Bft) 97,87 %
02.07.2018 18:20 28,9 C 28,3 C 26,7 C 35 % 1012,7 hPa 0,0 l/m 2 min 0 min 554 W/m 6,8 km/h (2 Bft) 96,55 %
02.07.2018 18:22 28,9 C 28,3 C 26,7 C 36 % 1012,6 hPa 0,0 l/m 2 min 0 min 548 W/m 9,0 km/h (2 Bft) 93,62 %
02.07.2018 18:24 28,8 C 28,9 C 26,7 C 36 % 1012,7 hPa 0,0 l/m 2 min 0 min 543 W/m 6,8 km/h (2 Bft) 100,00 %
02.07.2018 18:26 28,8 C 28,3 C 26,7 C 36 % 1012,6 hPa 0,0 l/m 2 min 0 min 539 W/m 6,8 km/h (2 Bft) 94,92 %
02.07.2018 18:28 28,8 C 28,9 C 26,7 C 36 % 1012,6 hPa 0,0 l/m 2 min 0 min 535 W/m 6,8 km/h (2 Bft) 97,14 %
02.07.2018 18:30 28,7 C 28,3 C 26,7 C 35 % 1012,6 hPa 0,0 l/m 2 min 0 min 530 W/m 11,3 km/h (2 Bft) 97,87 %
02.07.2018 18:32 28,7 C 28,3 C 26,1 C 36 % 1012,6 hPa 0,0 l/m 2 min 0 min 525 W/m 9,0 km/h (2 Bft) 95,83 %
02.07.2018 18:34 28,7 C 28,3 C 26,1 C 35 % 1012,6 hPa 0,0 l/m 2 min 0 min 519 W/m 6,8 km/h (2 Bft) 96,61 %
02.07.2018 18:36 28,6 C 28,3 C 26,1 C 35 % 1012,6 hPa 0,0 l/m 2 min 0 min 513 W/m 6,8 km/h (2 Bft) 91,43 %
02.07.2018 18:38 28,6 C 28,3 C 26,1 C 35 % 1012,6 hPa 0,0 l/m 2 min 0 min 508 W/m 6,8 km/h (2 Bft) 95,74 %
02.07.2018 18:40 28,6 C 28,3 C 26,1 C 36 % 1012,6 hPa 0,0 l/m 2 min 0 min 503 W/m 6,8 km/h (2 Bft) 96,55 %
02.07.2018 18:42 28,6 C 28,3 C 26,1 C 36 % 1012,5 hPa 0,0 l/m 2 min 0 min 497 W/m 6,8 km/h (2 Bft) 93,62 %
02.07.2018 18:44 28,6 C 28,3 C 26,1 C 36 % 1012,5 hPa 0,0 l/m 2 min 0 min 493 W/m 11,3 km/h (2 Bft) 94,29 %
02.07.2018 18:46 28,5 C 28,3 C 26,1 C 35 % 1012,5 hPa 0,0 l/m 2 min 0 min 488 W/m 15,8 km/h (3 Bft) 96,61 %
02.07.2018 18:48 28,5 C 28,3 C 26,1 C 36 % 1012,5 hPa 0,0 l/m 2 min 0 min 482 W/m 11,3 km/h (2 Bft) 94,29 %
02.07.2018 18:50 28,5 C 28,3 C 26,1 C 35 % 1012,5 hPa 0,0 l/m 2 min 0 min 476 W/m 6,8 km/h (2 Bft) 94,92 %
02.07.2018 18:52 28,5 C 28,3 C 26,1 C 34 % 1012,5 hPa 0,0 l/m 2 min 0 min 470 W/m 9,0 km/h (2 Bft) 95,65 %
02.07.2018 18:54 28,4 C 27,8 C 26,1 C 34 % 1012,5 hPa 0,0 l/m 2 min 0 min 464 W/m 11,3 km/h (2 Bft) 97,22 %
02.07.2018 18:56 28,4 C 27,8 C 25,6 C 34 % 1012,4 hPa 0,0 l/m 2 min 0 min 460 W/m 13,5 km/h (3 Bft) 94,83 %
02.07.2018 18:58 28,4 C 27,8 C 26,1 C 35 % 1012,5 hPa 0,0 l/m 2 min 0 min 454 W/m 9,0 km/h (2 Bft) 97,14 %
02.07.2018 19:00 28,4 C 27,8 C 26,1 C 35 % 1012,5 hPa 0,0 l/m 2 min 0 min 448 W/m 11,3 km/h (2 Bft) 93,62 %
02.07.2018 19:02 28,4 C 27,8 C 26,1 C 35 % 1012,6 hPa 0,0 l/m 2 min 0 min 443 W/m 9,0 km/h (2 Bft) 96,55 %
02.07.2018 19:04 28,3 C 27,8 C 25,6 C 35 % 1012,6 hPa 0,0 l/m 2 min 0 min 437 W/m 9,0 km/h (2 Bft) 94,44 %
02.07.2018 19:06 28,3 C 27,8 C 25,6 C 36 % 1012,6 hPa 0,0 l/m 2 min 0 min 431 W/m 4,5 km/h (1 Bft) 95,65 %
02.07.2018 19:08 28,3 C 27,8 C 25,6 C 35 % 1012,6 hPa 0,0 l/m 2 min 0 min 425 W/m 6,8 km/h (2 Bft) 95,74 %
02.07.2018 19:10 28,3 C 27,8 C 25,6 C 37 % 1012,7 hPa 0,0 l/m 2 min 0 min 418 W/m 4,5 km/h (1 Bft) 95,74 %
02.07.2018 19:12 28,2 C 27,8 C 25,6 C 37 % 1012,7 hPa 0,0 l/m 2 min 0 min 414 W/m 9,0 km/h (2 Bft) 94,92 %
02.07.2018 19:14 28,2 C 27,8 C 25,6 C 38 % 1012,7 hPa 0,0 l/m 2 min 0 min 408 W/m 6,8 km/h (2 Bft) 97,14 %
02.07.2018 19:16 28,1 C 27,2 C 25,0 C 36 % 1012,7 hPa 0,0 l/m 2 min 0 min 402 W/m 6,8 km/h (2 Bft) 94,83 %
02.07.2018 19:18 28,1 C 27,2 C 25,0 C 36 % 1012,6 hPa 0,0 l/m 2 min 0 min 397 W/m 6,8 km/h (2 Bft) 94,29 %
02.07.2018 19:20 27,9 C 27,2 C 25,0 C 36 % 1012,6 hPa 0,0 l/m 2 min 0 min 391 W/m 6,8 km/h (2 Bft) 96,61 %
02.07.2018 19:22 27,9 C 27,2 C 25,0 C 36 % 1012,7 hPa 0,0 l/m 2 min 0 min 384 W/m 4,5 km/h (1 Bft) 95,74 %
02.07.2018 19:24 27,8 C 27,2 C 25,0 C 36 % 1012,7 hPa 0,0 l/m 2 min 0 min 380 W/m 9,0 km/h (2 Bft) 95,74 %
02.07.2018 19:26 27,8 C 27,2 C 25,0 C 36 % 1012,7 hPa 0,0 l/m 2 min 0 min 375 W/m 9,0 km/h (2 Bft) 97,83 %
02.07.2018 19:28 27,7 C 26,7 C 24,4 C 36 % 1012,7 hPa 0,0 l/m 2 min 0 min 370 W/m 6,8 km/h (2 Bft) 97,87 %
02.07.2018 19:30 27,7 C 26,7 C 24,4 C 36 % 1012,6 hPa 0,0 l/m 2 min 0 min 363 W/m 6,8 km/h (2 Bft) 97,22 %
02.07.2018 19:32 27,6 C 26,7 C 24,4 C 36 % 1012,7 hPa 0,0 l/m 2 min 0 min 357 W/m 9,0 km/h (2 Bft) 97,83 %
02.07.2018 19:34 27,5 C 26,7 C 24,4 C 36 % 1012,6 hPa 0,0 l/m 2 min 0 min 352 W/m 11,3 km/h (2 Bft) 95,74 %
02.07.2018 19:36 27,4 C 26,7 C 24,4 C 35 % 1012,7 hPa 0,0 l/m 2 min 0 min 348 W/m 15,8 km/h (3 Bft) 97,87 %
02.07.2018 19:38 27,3 C 26,1 C 24,4 C 36 % 1012,7 hPa 0,0 l/m 2 min 0 min 342 W/m 9,0 km/h (2 Bft) 97,87 %
02.07.2018 19:40 27,3 C 26,1 C 24,4 C 36 % 1012,7 hPa 0,0 l/m 2 min 0 min 336 W/m 11,3 km/h (2 Bft) 97,87 %
02.07.2018 19:42 27,2 C 26,1 C 24,4 C 36 % 1012,7 hPa 0,0 l/m 2 min 0 min 329 W/m 6,8 km/h (2 Bft) 97,83 %
02.07.2018 19:44 27,1 C 26,1 C 24,4 C 37 % 1012,7 hPa 0,0 l/m 2 min 0 min 323 W/m 4,5 km/h (1 Bft) 95,74 %
02.07.2018 19:46 27,0 C 26,1 C 24,4 C 37 % 1012,7 hPa 0,0 l/m 2 min 0 min 317 W/m 6,8 km/h (2 Bft) 100,00 %
02.07.2018 19:48 26,9 C 26,1 C 24,4 C 37 % 1012,7 hPa 0,0 l/m 2 min 0 min 312 W/m 4,5 km/h (1 Bft) 100,00 %
02.07.2018 19:50 26,9 C 25,6 C 23,9 C 37 % 1012,7 hPa 0,0 l/m 2 min 0 min 307 W/m 6,8 km/h (2 Bft) 100,00 %
02.07.2018 19:52 26,8 C 25,6 C 23,9 C 38 % 1012,7 hPa 0,0 l/m 2 min 0 min 300 W/m 9,0 km/h (2 Bft) 100,00 %
02.07.2018 19:54 26,7 C 25,6 C 23,9 C 38 % 1012,8 hPa 0,0 l/m 2 min 0 min 294 W/m 6,8 km/h (2 Bft) 100,00 %
02.07.2018 19:56 26,7 C 25,6 C 23,9 C 38 % 1012,7 hPa 0,0 l/m 2 min 0 min 283 W/m 6,8 km/h (2 Bft) 100,00 %
02.07.2018 19:58 26,6 C 25,6 C 23,9 C 38 % 1012,8 hPa 0,0 l/m 2 min 0 min 181 W/m 9,0 km/h (2 Bft) 100,00 %
02.07.2018 20:00 26,5 C 25,0 C 23,9 C 38 % 1012,7 hPa 0,0 l/m 0 min 0 min 66 W/m 4,5 km/h (1 Bft) 100,00 %
02.07.2018 20:02 26,4 C 25,0 C 23,9 C 38 % 1012,8 hPa 0,0 l/m 0 min 0 min 43 W/m 4,5 km/h (1 Bft) 100,00 %
02.07.2018 20:04 26,4 C 25,0 C 23,9 C 39 % 1012,8 hPa 0,0 l/m 0 min 0 min 42 W/m 4,5 km/h (1 Bft) 100,00 %
02.07.2018 20:06 26,3 C 25,0 C 23,9 C 39 % 1012,8 hPa 0,0 l/m 0 min 0 min 41 W/m 4,5 km/h (1 Bft) 97,87 %
02.07.2018 20:08 26,2 C 25,0 C 23,3 C 39 % 1012,7 hPa 0,0 l/m 0 min 0 min 40 W/m 6,8 km/h (2 Bft) 97,87 %
02.07.2018 20:10 26,1 C 24,4 C 23,3 C 39 % 1012,8 hPa 0,0 l/m 0 min 0 min 40 W/m 9,0 km/h (2 Bft) 97,87 %
02.07.2018 20:12 26,1 C 24,4 C 23,3 C 39 % 1012,8 hPa 0,0 l/m 0 min 0 min 40 W/m 4,5 km/h (1 Bft) 97,87 %
02.07.2018 20:14 25,9 C 24,4 C 23,3 C 39 % 1012,7 hPa 0,0 l/m 0 min 0 min 39 W/m 4,5 km/h (1 Bft) 95,74 %
02.07.2018 20:16 25,9 C 24,4 C 23,3 C 40 % 1012,7 hPa 0,0 l/m 0 min 0 min 39 W/m 4,5 km/h (1 Bft) 97,83 %
02.07.2018 20:18 25,8 C 24,4 C 23,3 C 40 % 1012,7 hPa 0,0 l/m 0 min 0 min 38 W/m 4,5 km/h (1 Bft) 95,74 %
02.07.2018 20:20 25,8 C 23,9 C 23,3 C 40 % 1012,7 hPa 0,0 l/m 0 min 0 min 37 W/m 9,0 km/h (2 Bft) 97,87 %
02.07.2018 20:22 25,7 C 23,9 C 23,3 C 39 % 1012,7 hPa 0,0 l/m 0 min 0 min 37 W/m 6,8 km/h (2 Bft) 97,87 %
02.07.2018 20:24 25,6 C 23,9 C 23,3 C 40 % 1012,6 hPa 0,0 l/m 0 min 0 min 35 W/m 6,8 km/h (2 Bft) 97,87 %
02.07.2018 20:26 25,5 C 23,9 C 23,3 C 40 % 1012,6 hPa 0,0 l/m 0 min 0 min 35 W/m 4,5 km/h (1 Bft) 97,87 %
02.07.2018 20:28 25,4 C 23,9 C 23,3 C 40 % 1012,6 hPa 0,0 l/m 0 min 0 min 34 W/m 4,5 km/h (1 Bft) 97,83 %
02.07.2018 20:30 25,4 C 23,9 C 22,8 C 41 % 1012,6 hPa 0,0 l/m 0 min 0 min 33 W/m 6,8 km/h (2 Bft) 97,87 %
02.07.2018 20:32 25,3 C 23,9 C 22,8 C 41 % 1012,6 hPa 0,0 l/m 0 min 0 min 33 W/m 4,5 km/h (1 Bft) 97,87 %
02.07.2018 20:34 25,2 C 23,3 C 22,8 C 41 % 1012,6 hPa 0,0 l/m 0 min 0 min 32 W/m 6,8 km/h (2 Bft) 95,74 %
02.07.2018 20:36 25,2 C 23,3 C 22,8 C 41 % 1012,7 hPa 0,0 l/m 0 min 0 min 32 W/m 6,8 km/h (2 Bft) 97,87 %
02.07.2018 20:38 25,1 C 23,3 C 22,8 C 41 % 1012,7 hPa 0,0 l/m 0 min 0 min 32 W/m 6,8 km/h (2 Bft) 95,74 %
02.07.2018 20:40 25,1 C 23,3 C 22,8 C 41 % 1012,7 hPa 0,0 l/m 0 min 0 min 30 W/m 6,8 km/h (2 Bft) 97,87 %
02.07.2018 20:42 25,0 C 23,3 C 22,8 C 41 % 1012,7 hPa 0,0 l/m 0 min 0 min 30 W/m 4,5 km/h (1 Bft) 97,87 %
02.07.2018 20:44 24,9 C 23,3 C 22,8 C 42 % 1012,8 hPa 0,0 l/m 0 min 0 min 29 W/m 4,5 km/h (1 Bft) 100,00 %
02.07.2018 20:46 24,9 C 23,3 C 22,8 C 42 % 1012,8 hPa 0,0 l/m 0 min 0 min 28 W/m 6,8 km/h (2 Bft) 97,83 %
02.07.2018 20:48 24,8 C 23,3 C 22,8 C 42 % 1012,8 hPa 0,0 l/m 0 min 0 min 28 W/m 6,8 km/h (2 Bft) 97,87 %
02.07.2018 20:50 24,8 C 22,8 C 22,8 C 43 % 1012,8 hPa 0,0 l/m 0 min 0 min 26 W/m 4,5 km/h (1 Bft) 97,87 %
02.07.2018 20:52 24,7 C 22,8 C 22,2 C 43 % 1012,9 hPa 0,0 l/m 0 min 0 min 26 W/m 4,5 km/h (1 Bft) 95,74 %
02.07.2018 20:54 24,7 C 22,8 C 22,2 C 44 % 1012,9 hPa 0,0 l/m 0 min 0 min 26 W/m 4,5 km/h (1 Bft) 100,00 %
02.07.2018 20:56 24,6 C 22,8 C 22,2 C 43 % 1012,9 hPa 0,0 l/m 0 min 0 min 25 W/m 4,5 km/h (1 Bft) 97,87 %
02.07.2018 20:58 24,6 C 22,8 C 22,2 C 44 % 1012,9 hPa 0,0 l/m 0 min 0 min 25 W/m 4,5 km/h (1 Bft) 100,00 %
02.07.2018 21:00 24,5 C 22,8 C 22,2 C 44 % 1013,0 hPa 0,0 l/m 0 min 0 min 23 W/m 4,5 km/h (1 Bft) 100,00 %
02.07.2018 21:02 24,4 C 22,2 C 22,2 C 44 % 1013,0 hPa 0,0 l/m 0 min 0 min 23 W/m 2,3 km/h (1 Bft) 100,00 %
02.07.2018 21:04 24,3 C 22,2 C 22,2 C 44 % 1012,9 hPa 0,0 l/m 0 min 0 min 22 W/m 4,5 km/h (1 Bft) 100,00 %
02.07.2018 21:06 24,3 C 22,2 C 22,2 C 45 % 1013,0 hPa 0,0 l/m 0 min 0 min 21 W/m 4,5 km/h (1 Bft) 97,87 %
02.07.2018 21:08 24,2 C 22,2 C 22,2 C 44 % 1013,0 hPa 0,0 l/m 0 min 0 min 21 W/m 6,8 km/h (2 Bft) 97,83 %
02.07.2018 21:10 24,1 C 22,2 C 21,7 C 44 % 1013,0 hPa 0,0 l/m 0 min 0 min 19 W/m 4,5 km/h (1 Bft) 100,00 %
02.07.2018 21:12 24,1 C 22,2 C 21,7 C 44 % 1013,0 hPa 0,0 l/m 0 min 0 min 19 W/m 2,3 km/h (1 Bft) 100,00 %
02.07.2018 21:14 24,0 C 22,2 C 21,7 C 45 % 1013,0 hPa 0,0 l/m 0 min 0 min 19 W/m 4,5 km/h (1 Bft) 100,00 %
02.07.2018 21:16 23,9 C 22,2 C 21,7 C 45 % 1013,0 hPa 0,0 l/m 0 min 0 min 18 W/m 4,5 km/h (1 Bft) 97,87 %
02.07.2018 21:18 23,8 C 22,2 C 21,7 C 45 % 1013,0 hPa 0,0 l/m 0 min 0 min 18 W/m 4,5 km/h (1 Bft) 100,00 %
02.07.2018 21:20 23,8 C 21,7 C 21,7 C 45 % 1013,1 hPa 0,0 l/m 0 min 0 min 16 W/m 4,5 km/h (1 Bft) 100,00 %
02.07.2018 21:22 23,7 C 21,7 C 21,7 C 45 % 1013,1 hPa 0,0 l/m 0 min 0 min 16 W/m 6,8 km/h (2 Bft) 100,00 %
02.07.2018 21:24 23,7 C 21,7 C 21,7 C 45 % 1013,1 hPa 0,0 l/m 0 min 0 min 16 W/m 9,0 km/h (2 Bft) 100,00 %
02.07.2018 21:26 23,6 C 21,7 C 21,7 C 45 % 1013,1 hPa 0,0 l/m 0 min 0 min 14 W/m 6,8 km/h (2 Bft) 100,00 %
02.07.2018 21:28 23,6 C 21,7 C 21,7 C 45 % 1013,1 hPa 0,0 l/m 0 min 0 min 14 W/m 6,8 km/h (2 Bft) 100,00 %
02.07.2018 21:30 23,4 C 21,7 C 21,7 C 45 % 1013,2 hPa 0,0 l/m 0 min 0 min 13 W/m 6,8 km/h (2 Bft) 97,87 %
02.07.2018 21:32 23,4 C 21,7 C 21,7 C 45 % 1013,2 hPa 0,0 l/m 0 min 0 min 12 W/m 4,5 km/h (1 Bft) 100,00 %
02.07.2018 21:34 23,3 C 21,7 C 21,7 C 45 % 1013,3 hPa 0,0 l/m 0 min 0 min 12 W/m 4,5 km/h (1 Bft) 97,87 %
02.07.2018 21:36 23,3 C 21,7 C 21,7 C 45 % 1013,2 hPa 0,0 l/m 0 min 0 min 11 W/m 4,5 km/h (1 Bft) 100,00 %
02.07.2018 21:38 23,2 C 21,7 C 21,7 C 46 % 1013,2 hPa 0,0 l/m 0 min 0 min 11 W/m 4,5 km/h (1 Bft) 100,00 %
02.07.2018 21:40 23,2 C 21,7 C 21,1 C 45 % 1013,3 hPa 0,0 l/m 0 min 0 min 10 W/m 4,5 km/h (1 Bft) 100,00 %
02.07.2018 21:42 23,2 C 21,1 C 21,1 C 46 % 1013,3 hPa 0,0 l/m 0 min 0 min 9 W/m 4,5 km/h (1 Bft) 100,00 %
02.07.2018 21:44 23,1 C 21,1 C 21,1 C 46 % 1013,3 hPa 0,0 l/m 0 min 0 min 8 W/m 4,5 km/h (1 Bft) 95,65 %
02.07.2018 21:46 23,1 C 21,1 C 21,1 C 46 % 1013,3 hPa 0,0 l/m 0 min 0 min 7 W/m 4,5 km/h (1 Bft) 97,87 %
02.07.2018 21:48 23,0 C 21,1 C 21,1 C 46 % 1013,3 hPa 0,0 l/m 0 min 0 min 7 W/m 6,8 km/h (2 Bft) 97,87 %
02.07.2018 21:50 22,9 C 21,1 C 21,1 C 46 % 1013,3 hPa 0,0 l/m 0 min 0 min 6 W/m 4,5 km/h (1 Bft) 100,00 %
02.07.2018 21:52 22,8 C 21,1 C 21,1 C 46 % 1013,3 hPa 0,0 l/m 0 min 0 min 5 W/m 6,8 km/h (2 Bft) 95,83 %
02.07.2018 21:54 22,8 C 20,6 C 20,6 C 46 % 1013,4 hPa 0,0 l/m 0 min 0 min 5 W/m 4,5 km/h (1 Bft) 97,87 %
02.07.2018 21:56 22,7 C 20,6 C 20,6 C 47 % 1013,4 hPa 0,0 l/m 0 min 0 min 5 W/m 4,5 km/h (1 Bft) 95,65 %
02.07.2018 21:58 22,7 C 20,6 C 20,6 C 46 % 1013,5 hPa 0,0 l/m 0 min 0 min 3 W/m 6,8 km/h (2 Bft) 95,74 %
02.07.2018 22:00 22,6 C 20,6 C 20,6 C 46 % 1013,5 hPa 0,0 l/m 0 min 0 min 0 W/m 4,5 km/h (1 Bft) 95,74 %
02.07.2018 22:02 22,6 C 20,6 C 20,6 C 46 % 1013,5 hPa 0,0 l/m 0 min 0 min 0 W/m 6,8 km/h (2 Bft) 97,87 %
02.07.2018 22:04 22,5 C 20,6 C 20,6 C 46 % 1013,6 hPa 0,0 l/m 0 min 0 min 0 W/m 9,0 km/h (2 Bft) 97,87 %
02.07.2018 22:06 22,4 C 20,6 C 20,6 C 47 % 1013,5 hPa 0,0 l/m 0 min 0 min 0 W/m 6,8 km/h (2 Bft) 95,74 %
02.07.2018 22:08 22,4 C 20,6 C 20,6 C 47 % 1013,6 hPa 0,0 l/m 0 min 0 min 0 W/m 4,5 km/h (1 Bft) 95,74 %
02.07.2018 22:10 22,3 C 20,6 C 20,6 C 47 % 1013,6 hPa 0,0 l/m 0 min 0 min 0 W/m 6,8 km/h (2 Bft) 95,74 %
02.07.2018 22:12 22,2 C 20,6 C 20,6 C 47 % 1013,7 hPa 0,0 l/m 0 min 0 min 0 W/m 6,8 km/h (2 Bft) 95,74 %
02.07.2018 22:14 22,2 C 20,6 C 20,6 C 47 % 1013,6 hPa 0,0 l/m 0 min 0 min 0 W/m 4,5 km/h (1 Bft) 93,48 %
02.07.2018 22:16 22,2 C 20,6 C 20,6 C 47 % 1013,7 hPa 0,0 l/m 0 min 0 min 0 W/m 4,5 km/h (1 Bft) 93,62 %
02.07.2018 22:18 22,1 C 20,0 C 20,6 C 47 % 1013,7 hPa 0,0 l/m 0 min 0 min 0 W/m 2,3 km/h (1 Bft) 95,74 %
02.07.2018 22:20 22,1 C 20,0 C 20,6 C 47 % 1013,8 hPa 0,0 l/m 0 min 0 min 0 W/m 4,5 km/h (1 Bft) 93,62 %
02.07.2018 22:22 22,0 C 20,0 C 20,6 C 47 % 1013,7 hPa 0,0 l/m 0 min 0 min 0 W/m 6,8 km/h (2 Bft) 95,74 %
02.07.2018 22:24 21,9 C 20,6 C 20,6 C 47 % 1013,8 hPa 0,0 l/m 0 min 0 min 0 W/m 9,0 km/h (2 Bft) 95,65 %
02.07.2018 22:26 21,9 C 20,6 C 20,6 C 47 % 1013,8 hPa 0,0 l/m 0 min 0 min 0 W/m 6,8 km/h (2 Bft) 95,74 %
02.07.2018 22:28 21,8 C 20,6 C 20,6 C 47 % 1013,8 hPa 0,0 l/m 0 min 0 min 0 W/m 6,8 km/h (2 Bft) 95,74 %
02.07.2018 22:30 21,8 C 20,6 C 20,6 C 47 % 1013,8 hPa 0,0 l/m 0 min 0 min 0 W/m 6,8 km/h (2 Bft) 95,74 %
02.07.2018 22:32 21,7 C 20,6 C 20,6 C 47 % 1013,8 hPa 0,0 l/m 0 min 0 min 0 W/m 6,8 km/h (2 Bft) 93,62 %
02.07.2018 22:34 21,7 C 20,6 C 20,6 C 47 % 1013,9 hPa 0,0 l/m 0 min 0 min 0 W/m 4,5 km/h (1 Bft) 95,74 %
02.07.2018 22:36 21,7 C 20,6 C 20,6 C 47 % 1013,9 hPa 0,0 l/m 0 min 0 min 0 W/m 4,5 km/h (1 Bft) 95,65 %
02.07.2018 22:38 21,6 C 20,6 C 20,6 C 47 % 1013,8 hPa 0,0 l/m 0 min 0 min 0 W/m 6,8 km/h (2 Bft) 95,74 %
02.07.2018 22:40 21,6 C 20,0 C 20,0 C 46 % 1013,9 hPa 0,0 l/m 0 min 0 min 0 W/m 4,5 km/h (1 Bft) 93,62 %
02.07.2018 22:42 21,6 C 20,0 C 20,0 C 47 % 1013,8 hPa 0,0 l/m 0 min 0 min 0 W/m 6,8 km/h (2 Bft) 95,74 %
02.07.2018 22:44 21,5 C 20,0 C 20,0 C 46 % 1013,9 hPa 0,0 l/m 0 min 0 min 0 W/m 11,3 km/h (2 Bft) 93,62 %
02.07.2018 22:46 21,5 C 20,0 C 20,0 C 46 % 1013,9 hPa 0,0 l/m 0 min 0 min 0 W/m 4,5 km/h (1 Bft) 95,74 %
02.07.2018 22:48 21,4 C 20,0 C 20,0 C 46 % 1013,9 hPa 0,0 l/m 0 min 0 min 0 W/m 4,5 km/h (1 Bft) 95,65 %
02.07.2018 22:50 21,4 C 20,0 C 20,0 C 46 % 1013,9 hPa 0,0 l/m 0 min 0 min 0 W/m 6,8 km/h (2 Bft) 97,87 %
02.07.2018 22:52 21,3 C 20,0 C 20,0 C 46 % 1014,0 hPa 0,0 l/m 0 min 0 min 0 W/m 6,8 km/h (2 Bft) 95,74 %
02.07.2018 22:54 21,3 C 20,0 C 20,0 C 46 % 1014,0 hPa 0,0 l/m 0 min 0 min 0 W/m 6,8 km/h (2 Bft) 97,87 %
02.07.2018 22:56 21,3 C 20,0 C 20,0 C 46 % 1014,0 hPa 0,0 l/m 0 min 0 min 0 W/m 4,5 km/h (1 Bft) 93,62 %
02.07.2018 22:58 21,2 C 20,0 C 20,0 C 46 % 1014,0 hPa 0,0 l/m 0 min 0 min 0 W/m 4,5 km/h (1 Bft) 95,74 %
02.07.2018 23:00 21,2 C 20,0 C 20,0 C 46 % 1014,0 hPa 0,0 l/m 0 min 0 min 0 W/m 11,3 km/h (2 Bft) 97,83 %
02.07.2018 23:02 21,2 C 20,0 C 20,0 C 45 % 1014,0 hPa 0,0 l/m 0 min 0 min 0 W/m 6,8 km/h (2 Bft) 100,00 %
02.07.2018 23:04 21,1 C 20,0 C 20,0 C 45 % 1014,0 hPa 0,0 l/m 0 min 0 min 0 W/m 4,5 km/h (1 Bft) 97,87 %
02.07.2018 23:06 21,1 C 20,0 C 20,0 C 45 % 1014,1 hPa 0,0 l/m 0 min 0 min 0 W/m 6,8 km/h (2 Bft) 97,87 %
02.07.2018 23:08 21,1 C 20,0 C 20,0 C 45 % 1014,1 hPa 0,0 l/m 0 min 0 min 0 W/m 11,3 km/h (2 Bft) 93,62 %
02.07.2018 23:10 21,0 C 20,0 C 20,0 C 45 % 1014,1 hPa 0,0 l/m 0 min 0 min 0 W/m 6,8 km/h (2 Bft) 95,74 %
02.07.2018 23:12 21,0 C 20,0 C 20,0 C 44 % 1014,1 hPa 0,0 l/m 0 min 0 min 0 W/m 6,8 km/h (2 Bft) 97,83 %
02.07.2018 23:14 20,9 C 20,0 C 20,0 C 44 % 1014,1 hPa 0,0 l/m 0 min 0 min 0 W/m 9,0 km/h (2 Bft) 97,87 %
02.07.2018 23:16 20,9 C 20,0 C 20,0 C 44 % 1014,1 hPa 0,0 l/m 0 min 0 min 0 W/m 9,0 km/h (2 Bft) 97,87 %
02.07.2018 23:18 20,9 C 20,0 C 20,0 C 45 % 1014,1 hPa 0,0 l/m 0 min 0 min 0 W/m 4,5 km/h (1 Bft) 95,74 %
02.07.2018 23:20 20,9 C 20,0 C 20,0 C 44 % 1014,1 hPa 0,0 l/m 0 min 0 min 0 W/m 4,5 km/h (1 Bft) 97,87 %
02.07.2018 23:22 20,8 C 20,0 C 20,0 C 45 % 1014,2 hPa 0,0 l/m 0 min 0 min 0 W/m 6,8 km/h (2 Bft) 97,87 %
02.07.2018 23:24 20,8 C 19,4 C 19,4 C 45 % 1014,2 hPa 0,0 l/m 0 min 0 min 0 W/m 9,0 km/h (2 Bft) 97,83 %
02.07.2018 23:26 20,8 C 19,4 C 19,4 C 45 % 1014,2 hPa 0,0 l/m 0 min 0 min 0 W/m 4,5 km/h (1 Bft) 97,87 %
02.07.2018 23:28 20,8 C 19,4 C 19,4 C 45 % 1014,1 hPa 0,0 l/m 0 min 0 min 0 W/m 9,0 km/h (2 Bft) 95,74 %
02.07.2018 23:30 20,7 C 19,4 C 19,4 C 45 % 1014,2 hPa 0,0 l/m 0 min 0 min 0 W/m 6,8 km/h (2 Bft) 97,87 %
02.07.2018 23:32 20,7 C 19,4 C 19,4 C 45 % 1014,2 hPa 0,0 l/m 0 min 0 min 0 W/m 4,5 km/h (1 Bft) 97,87 %
02.07.2018 23:34 20,7 C 19,4 C 19,4 C 45 % 1014,2 hPa 0,0 l/m 0 min 0 min 0 W/m 6,8 km/h (2 Bft) 97,87 %
02.07.2018 23:36 20,7 C 19,4 C 19,4 C 46 % 1014,2 hPa 0,0 l/m 0 min 0 min 0 W/m 9,0 km/h (2 Bft) 95,65 %
02.07.2018 23:38 20,7 C 19,4 C 19,4 C 46 % 1014,3 hPa 0,0 l/m 0 min 0 min 0 W/m 6,8 km/h (2 Bft) 97,87 %
02.07.2018 23:40 20,6 C 19,4 C 19,4 C 45 % 1014,2 hPa 0,0 l/m 0 min 0 min 0 W/m 9,0 km/h (2 Bft) 97,87 %
02.07.2018 23:42 20,6 C 19,4 C 19,4 C 46 % 1014,3 hPa 0,0 l/m 0 min 0 min 0 W/m 4,5 km/h (1 Bft) 100,00 %
02.07.2018 23:44 20,6 C 19,4 C 19,4 C 45 % 1014,2 hPa 0,0 l/m 0 min 0 min 0 W/m 6,8 km/h (2 Bft) 100,00 %
02.07.2018 23:46 20,5 C 18,9 C 19,4 C 46 % 1014,2 hPa 0,0 l/m 0 min 0 min 0 W/m 4,5 km/h (1 Bft) 97,83 %
02.07.2018 23:48 20,5 C 18,9 C 19,4 C 46 % 1014,2 hPa 0,0 l/m 0 min 0 min 0 W/m 4,5 km/h (1 Bft) 100,00 %
02.07.2018 23:50 20,4 C 18,9 C 18,9 C 46 % 1014,3 hPa 0,0 l/m 0 min 0 min 0 W/m 4,5 km/h (1 Bft) 100,00 %
02.07.2018 23:52 20,4 C 18,9 C 18,9 C 46 % 1014,3 hPa 0,0 l/m 0 min 0 min 0 W/m 4,5 km/h (1 Bft) 100,00 %
02.07.2018 23:54 20,4 C 18,9 C 18,9 C 46 % 1014,3 hPa 0,0 l/m 0 min 0 min 0 W/m 9,0 km/h (2 Bft) 97,87 %
02.07.2018 23:56 20,3 C 18,9 C 18,9 C 46 % 1014,3 hPa 0,0 l/m 0 min 0 min 0 W/m 4,5 km/h (1 Bft) 97,87 %
02.07.2018 23:58 20,3 C 18,9 C 18,9 C 46 % 1014,3 hPa 0,0 l/m 0 min 0 min 0 W/m 4,5 km/h (1 Bft) 100,00 %
_ Min-Zeit 06:18 05:46 00:00 17:00 18:56 - - - - 00:00 02:46
Minimum _ 12,2 C 11,1 C 12,2 C 34 % 1012,4 hPa - - - - 0,0 km/h (0 Bft) 91,30 %
_ Max-Zeit 16:54 12:28 17:26 07:00 09:28 00:00 12:08 00:00 13:46 13:48 00:50
Maximum _ 29,3 C 36,7 C 26,7 C 76 % 1014,3 hPa 0,0 l/m 4 min 0 min 931 W/m 18,0 km/h
S-SO (3 Bft)
100,00 %
Durchschnitt _ 21,1 C 21,9 C 19,4 C 52 % 1013,5 hPa #0,0 l/m #11:48 h #0 min. 498 W/m 6,2 km/h (2 Bft) 97,42 %
© 2018 W. Hausmann